Time,TemperatureF,DewpointF,PressureIn,WindDirection,WindDirectionDegrees,WindSpeedMPH,WindSpeedGustMPH,Humidity,HourlyPrecipIn,Conditions,Clouds,dailyrainin,SolarRadiationWatts/m^2,SoftwareType,DateUTC
2013-05-01 00:01:00,73.8,45.1,29.69,SE,133,12.0,16.0,36,0.00,,,0.00,0,WeatherHawk,2013-05-01 07:01:00,
2013-05-01 00:02:00,73.8,45.1,29.69,SE,135,11.0,16.0,36,0.00,,,0.00,0,WeatherHawk,2013-05-01 07:02:00,
2013-05-01 00:03:00,73.6,45.7,29.69,SE,133,13.0,16.0,37,0.00,,,0.00,0,WeatherHawk,2013-05-01 07:03:00,
2013-05-01 00:04:00,73.6,45.7,29.69,SE,137,12.0,16.0,37,0.00,,,0.00,0,WeatherHawk,2013-05-01 07:04:00,
2013-05-01 00:06:00,73.4,45.5,29.69,SE,133,12.0,16.0,37,0.00,,,0.00,0,WeatherHawk,2013-05-01 07:06:00,
2013-05-01 00:08:00,73.4,46.2,29.69,SE,135,13.0,0.0,38,0.00,,,0.00,0,WeatherHawk,2013-05-01 07:08:00,
2013-05-01 00:09:00,73.4,46.2,29.69,SE,135,11.0,15.0,38,0.00,,,0.00,0,WeatherHawk,2013-05-01 07:09:00,
2013-05-01 00:13:00,73.2,46.1,29.69,SE,130,13.0,15.0,38,0.00,,,0.00,0,WeatherHawk,2013-05-01 07:13:00,
2013-05-01 00:16:00,73.2,46.1,29.70,SE,131,13.0,15.0,38,0.00,,,0.00,0,WeatherHawk,2013-05-01 07:16:00,
2013-05-01 00:18:00,73.0,46.6,29.70,SE,133,12.0,17.0,39,0.00,,,0.00,0,WeatherHawk,2013-05-01 07:18:00,
2013-05-01 00:20:00,73.0,46.6,29.70,SE,142,14.0,17.0,39,0.00,,,0.00,0,WeatherHawk,2013-05-01 07:20:00,
2013-05-01 00:23:00,73.0,45.9,29.70,SE,135,12.0,17.0,38,0.00,,,0.00,0,WeatherHawk,2013-05-01 07:23:00,
2013-05-01 00:28:00,73.0,45.9,29.70,SE,138,15.0,17.0,38,0.00,,,0.00,0,WeatherHawk,2013-05-01 07:28:00,
2013-05-01 00:30:00,73.0,45.9,29.70,SE,134,14.0,0.0,38,0.00,,,0.00,1,WeatherHawk,2013-05-01 07:30:00,
2013-05-01 00:31:00,72.9,45.8,29.70,SE,139,12.0,0.0,38,0.00,,,0.00,0,WeatherHawk,2013-05-01 07:31:00,
2013-05-01 00:34:00,72.9,45.8,29.70,SE,131,11.0,0.0,38,0.00,,,0.00,0,WeatherHawk,2013-05-01 07:34:00,
2013-05-01 00:36:00,72.9,45.8,29.70,SE,130,11.0,0.0,38,0.00,,,0.00,0,WeatherHawk,2013-05-01 07:36:00,
2013-05-01 00:38:00,72.9,45.8,29.70,SE,129,13.0,0.0,38,0.00,,,0.00,0,WeatherHawk,2013-05-01 07:38:00,
2013-05-01 00:40:00,72.7,45.6,29.70,SE,135,11.0,16.0,38,0.00,,,0.00,0,WeatherHawk,2013-05-01 07:40:00,
2013-05-01 00:41:00,72.7,45.6,29.70,SE,130,12.0,16.0,38,0.00,,,0.00,0,WeatherHawk,2013-05-01 07:41:00,
2013-05-01 00:44:00,72.5,45.4,29.70,SE,135,12.0,16.0,38,0.00,,,0.00,0,WeatherHawk,2013-05-01 07:44:00,
2013-05-01 00:46:00,72.5,46.1,29.70,SE,131,14.0,16.0,39,0.00,,,0.00,0,WeatherHawk,2013-05-01 07:46:00,
2013-05-01 00:48:00,72.5,46.1,29.70,SE,137,15.0,16.0,39,0.00,,,0.00,0,WeatherHawk,2013-05-01 07:48:00,
2013-05-01 00:49:00,72.5,46.1,29.70,SE,137,15.0,16.0,39,0.00,,,0.00,0,WeatherHawk,2013-05-01 07:49:00,
2013-05-01 00:50:00,72.5,46.1,29.70,SE,131,13.0,18.0,39,0.00,,,0.00,0,WeatherHawk,2013-05-01 07:50:00,
2013-05-01 00:52:00,72.3,46.0,29.70,SE,136,13.0,18.0,39,0.00,,,0.00,0,WeatherHawk,2013-05-01 07:52:00,
2013-05-01 00:54:00,72.3,46.0,29.70,SE,139,15.0,18.0,39,0.00,,,0.00,0,WeatherHawk,2013-05-01 07:54:00,
2013-05-01 00:55:00,72.3,46.6,29.70,SE,130,15.0,18.0,40,0.00,,,0.00,0,WeatherHawk,2013-05-01 07:55:00,
2013-05-01 00:58:00,72.3,46.6,29.70,SE,133,15.0,18.0,40,0.00,,,0.00,0,WeatherHawk,2013-05-01 07:58:00,
2013-05-01 00:59:00,72.3,46.6,29.70,SE,132,15.0,18.0,40,0.00,,,0.00,0,WeatherHawk,2013-05-01 07:59:00,
2013-05-01 01:02:00,72.1,47.1,29.70,SE,134,13.0,18.0,41,0.00,,,0.00,0,WeatherHawk,2013-05-01 08:02:00,
2013-05-01 01:03:00,72.1,47.1,19.87,SE,132,12.0,18.0,41,0.00,,,0.00,0,WeatherHawk,2013-05-01 08:03:00,
2013-05-01 01:04:00,72.1,47.1,29.70,SE,137,15.0,18.0,41,0.00,,,0.00,0,WeatherHawk,2013-05-01 08:04:00,
2013-05-01 01:05:00,72.0,47.0,29.70,SE,130,12.0,18.0,41,0.00,,,0.00,0,WeatherHawk,2013-05-01 08:05:00,
2013-05-01 01:09:00,71.8,47.4,29.70,SE,130,13.0,18.0,42,0.00,,,0.00,0,WeatherHawk,2013-05-01 08:09:00,
2013-05-01 01:11:00,71.8,48.1,29.70,SE,138,11.0,17.0,43,0.00,,,0.00,0,WeatherHawk,2013-05-01 08:11:00,
2013-05-01 01:13:00,71.6,47.9,29.70,SE,133,14.0,17.0,43,0.00,,,0.00,0,WeatherHawk,2013-05-01 08:13:00,
2013-05-01 01:14:00,71.6,47.9,29.70,SE,133,14.0,17.0,43,0.00,,,0.00,0,WeatherHawk,2013-05-01 08:14:00,
2013-05-01 01:16:00,71.6,48.5,29.70,SE,137,12.0,17.0,44,0.00,,,0.00,0,WeatherHawk,2013-05-01 08:16:00,
2013-05-01 01:17:00,71.6,48.5,29.70,SE,131,14.0,17.0,44,0.00,,,0.00,0,WeatherHawk,2013-05-01 08:17:00,
2013-05-01 01:18:00,71.4,49.0,29.71,SE,133,11.0,17.0,45,0.00,,,0.00,0,WeatherHawk,2013-05-01 08:18:00,
2013-05-01 01:19:00,71.4,49.0,29.71,SE,133,11.0,17.0,45,0.00,,,0.00,0,WeatherHawk,2013-05-01 08:19:00,
2013-05-01 01:22:00,71.2,48.8,29.70,SE,135,12.0,16.0,45,0.00,,,0.00,0,WeatherHawk,2013-05-01 08:22:00,
2013-05-01 01:23:00,71.2,49.4,29.70,SE,142,11.0,16.0,46,0.00,,,0.00,0,WeatherHawk,2013-05-01 08:23:00,
2013-05-01 01:24:00,71.2,49.4,29.70,SE,142,11.0,-999.0,46,0.00,,,0.00,0,WeatherHawk,2013-05-01 08:24:00,
2013-05-01 01:27:00,71.2,49.4,29.70,SE,140,12.0,16.0,46,0.00,,,0.00,0,WeatherHawk,2013-05-01 08:27:00,
2013-05-01 01:29:00,71.1,49.2,29.70,SE,135,12.0,16.0,46,0.00,,,0.00,1,WeatherHawk,2013-05-01 08:29:00,
2013-05-01 01:33:00,71.1,49.8,29.70,SE,135,15.0,16.0,47,0.00,,,0.00,0,WeatherHawk,2013-05-01 08:33:00,
2013-05-01 01:34:00,71.1,49.8,29.70,SE,135,15.0,-999.0,47,0.00,,,0.00,0,WeatherHawk,2013-05-01 08:34:00,
2013-05-01 01:39:00,70.9,50.2,29.70,SE,130,12.0,16.0,48,0.00,,,0.00,0,WeatherHawk,2013-05-01 08:39:00,
2013-05-01 01:40:00,70.9,50.2,29.71,SE,129,12.0,16.0,48,0.00,,,0.00,0,WeatherHawk,2013-05-01 08:40:00,
2013-05-01 01:43:00,70.7,50.6,29.71,SE,138,13.0,16.0,49,0.00,,,0.00,0,WeatherHawk,2013-05-01 08:43:00,
2013-05-01 01:44:00,70.7,50.6,29.71,SE,138,13.0,16.0,49,0.00,,,0.00,0,WeatherHawk,2013-05-01 08:44:00,
2013-05-01 01:46:00,70.7,50.6,29.71,SE,127,13.0,16.0,49,0.00,,,0.00,0,WeatherHawk,2013-05-01 08:46:00,
2013-05-01 01:49:00,70.7,50.6,29.71,SE,130,10.0,16.0,49,0.00,,,0.00,1,WeatherHawk,2013-05-01 08:49:00,
2013-05-01 01:54:00,70.7,51.1,29.71,SE,138,12.0,15.0,50,0.00,,,0.00,0,WeatherHawk,2013-05-01 08:54:00,
2013-05-01 01:58:00,70.5,51.0,29.71,SE,137,9.0,15.0,50,0.00,,,0.00,0,WeatherHawk,2013-05-01 08:58:00,
2013-05-01 01:59:00,70.5,51.0,29.71,SE,137,9.0,15.0,50,0.00,,,0.00,0,WeatherHawk,2013-05-01 08:59:00,
2013-05-01 02:01:00,70.3,51.3,29.71,SE,134,11.0,16.0,51,0.00,,,0.00,0,WeatherHawk,2013-05-01 09:01:00,
2013-05-01 02:04:00,70.2,51.2,29.71,SE,135,13.0,16.0,51,0.00,,,0.00,0,WeatherHawk,2013-05-01 09:04:00,
2013-05-01 02:05:00,70.2,51.7,29.71,SE,133,11.0,16.0,52,0.00,,,0.00,0,WeatherHawk,2013-05-01 09:05:00,
2013-05-01 02:09:00,70.2,51.7,29.71,SE,133,11.0,16.0,52,0.00,,,0.00,0,WeatherHawk,2013-05-01 09:09:00,
2013-05-01 02:12:00,70.0,51.5,29.71,SE,140,15.0,15.0,52,0.00,,,0.00,0,WeatherHawk,2013-05-01 09:12:00,
2013-05-01 02:14:00,70.2,51.7,29.72,SE,146,9.0,14.0,52,0.00,,,0.00,0,WeatherHawk,2013-05-01 09:14:00,
2013-05-01 02:15:00,70.0,51.5,29.72,SE,134,12.0,14.0,52,0.00,,,0.00,0,WeatherHawk,2013-05-01 09:15:00,
2013-05-01 02:17:00,70.2,51.7,29.72,SSE,157,9.0,14.0,52,0.00,,,0.00,0,WeatherHawk,2013-05-01 09:17:00,
2013-05-01 02:18:00,70.2,51.7,29.72,SE,138,11.0,14.0,52,0.00,,,0.00,0,WeatherHawk,2013-05-01 09:18:00,
2013-05-01 02:19:00,70.2,51.7,29.72,SE,138,11.0,14.0,52,0.00,,,0.00,0,WeatherHawk,2013-05-01 09:19:00,
2013-05-01 02:23:00,70.2,51.7,29.72,SE,129,13.0,17.0,52,0.00,,,0.00,0,WeatherHawk,2013-05-01 09:23:00,
2013-05-01 02:24:00,70.2,51.7,29.72,SE,129,13.0,17.0,52,0.00,,,0.00,0,WeatherHawk,2013-05-01 09:24:00,
2013-05-01 02:28:00,70.0,52.1,29.72,SE,139,12.0,17.0,53,0.00,,,0.00,0,WeatherHawk,2013-05-01 09:28:00,
2013-05-01 02:29:00,70.0,52.1,29.72,SE,129,11.0,17.0,53,0.00,,,0.00,0,WeatherHawk,2013-05-01 09:29:00,
2013-05-01 02:31:00,70.0,52.1,29.72,SE,135,12.0,17.0,53,0.00,,,0.00,0,WeatherHawk,2013-05-01 09:31:00,
2013-05-01 02:32:00,70.0,51.5,29.72,SE,140,11.0,17.0,52,0.00,,,0.00,0,WeatherHawk,2013-05-01 09:32:00,
2013-05-01 02:33:00,69.8,51.9,29.72,SE,134,12.0,17.0,53,0.00,,,0.00,0,WeatherHawk,2013-05-01 09:33:00,
2013-05-01 02:34:00,69.8,51.9,29.72,SE,134,12.0,-999.0,53,0.00,,,0.00,0,WeatherHawk,2013-05-01 09:34:00,
2013-05-01 02:35:00,69.8,51.9,29.72,SE,137,13.0,17.0,53,0.00,,,0.00,0,WeatherHawk,2013-05-01 09:35:00,
2013-05-01 02:38:00,69.8,51.9,29.72,SE,136,13.0,17.0,53,0.00,,,0.00,0,WeatherHawk,2013-05-01 09:38:00,
2013-05-01 02:39:00,69.8,51.9,29.72,SE,136,13.0,17.0,53,0.00,,,0.00,0,WeatherHawk,2013-05-01 09:39:00,
2013-05-01 02:40:00,69.8,51.9,29.72,SE,140,14.0,14.0,53,0.00,,,0.00,0,WeatherHawk,2013-05-01 09:40:00,
2013-05-01 02:41:00,69.8,51.9,29.72,SE,132,10.0,14.0,53,0.00,,,0.00,0,WeatherHawk,2013-05-01 09:41:00,
2013-05-01 02:42:00,69.6,51.7,29.72,SE,134,13.0,14.0,53,0.00,,,0.00,0,WeatherHawk,2013-05-01 09:42:00,
2013-05-01 02:44:00,69.6,51.7,29.72,SE,134,11.0,14.0,53,0.00,,,0.00,0,WeatherHawk,2013-05-01 09:44:00,
2013-05-01 02:47:00,69.4,52.1,29.72,SE,136,12.0,14.0,54,0.00,,,0.00,0,WeatherHawk,2013-05-01 09:47:00,
2013-05-01 02:48:00,69.4,52.1,29.72,SE,135,12.0,14.0,54,0.00,,,0.00,0,WeatherHawk,2013-05-01 09:48:00,
2013-05-01 02:50:00,69.4,52.1,29.72,SE,130,11.0,14.0,54,0.00,,,0.00,0,WeatherHawk,2013-05-01 09:50:00,
2013-05-01 02:53:00,69.3,52.4,29.72,SE,127,12.0,14.0,55,0.00,,,0.00,0,WeatherHawk,2013-05-01 09:53:00,
2013-05-01 02:58:00,69.1,52.7,29.72,SE,138,12.0,14.0,56,0.00,,,0.00,0,WeatherHawk,2013-05-01 09:58:00,
2013-05-01 03:03:00,68.9,52.5,29.72,SE,139,13.0,15.0,56,0.00,,,0.00,0,WeatherHawk,2013-05-01 10:03:00,
2013-05-01 03:05:00,68.9,52.5,29.72,SE,134,10.0,15.0,56,0.00,,,0.00,0,WeatherHawk,2013-05-01 10:05:00,
2013-05-01 03:06:00,68.9,53.0,29.72,SE,137,11.0,15.0,57,0.00,,,0.00,0,WeatherHawk,2013-05-01 10:06:00,
2013-05-01 03:08:00,68.9,53.0,29.72,SE,133,9.0,15.0,57,0.00,,,0.00,0,WeatherHawk,2013-05-01 10:08:00,
2013-05-01 03:10:00,68.7,52.9,29.72,SE,129,11.0,14.0,57,0.00,,,0.00,0,WeatherHawk,2013-05-01 10:10:00,
2013-05-01 03:11:00,68.7,52.9,29.72,SE,130,11.0,14.0,57,0.00,,,0.00,0,WeatherHawk,2013-05-01 10:11:00,
2013-05-01 03:13:00,68.7,52.9,29.73,SE,133,9.0,14.0,57,0.00,,,0.00,0,WeatherHawk,2013-05-01 10:13:00,
2013-05-01 03:15:00,68.9,53.0,29.73,SE,138,12.0,14.0,57,0.00,,,0.00,1,WeatherHawk,2013-05-01 10:15:00,
2013-05-01 03:18:00,68.7,52.9,29.73,SE,131,10.0,14.0,57,0.00,,,0.00,0,WeatherHawk,2013-05-01 10:18:00,
2013-05-01 03:21:00,68.7,53.3,29.73,SE,130,10.0,14.0,58,0.00,,,0.00,0,WeatherHawk,2013-05-01 10:21:00,
2013-05-01 03:22:00,68.7,53.3,29.73,SE,128,9.0,14.0,58,0.00,,,0.00,1,WeatherHawk,2013-05-01 10:22:00,
2013-05-01 03:23:00,68.7,53.3,29.73,SE,137,11.0,14.0,58,0.00,,,0.00,0,WeatherHawk,2013-05-01 10:23:00,
2013-05-01 03:28:00,68.5,53.2,29.73,SE,133,10.0,14.0,58,0.00,,,0.00,0,WeatherHawk,2013-05-01 10:28:00,
2013-05-01 03:30:00,68.5,53.2,29.73,SE,130,12.0,13.0,58,0.00,,,0.00,0,WeatherHawk,2013-05-01 10:30:00,
2013-05-01 03:35:00,68.5,53.2,29.73,SE,137,12.0,13.0,58,0.00,,,0.00,0,WeatherHawk,2013-05-01 10:35:00,
2013-05-01 03:36:00,68.5,53.2,29.73,SE,135,11.0,13.0,58,0.00,,,0.00,0,WeatherHawk,2013-05-01 10:36:00,
2013-05-01 03:38:00,68.5,53.2,29.73,SE,134,10.0,13.0,58,0.00,,,0.00,0,WeatherHawk,2013-05-01 10:38:00,
2013-05-01 03:41:00,68.4,53.0,29.73,SE,143,12.0,13.0,58,0.00,,,0.00,0,WeatherHawk,2013-05-01 10:41:00,
2013-05-01 03:43:00,68.4,53.0,29.73,SE,139,10.0,-999.0,58,0.00,,,0.00,0,WeatherHawk,2013-05-01 10:43:00,
2013-05-01 03:44:00,68.4,53.0,29.73,SE,138,11.0,13.0,58,0.00,,,0.00,0,WeatherHawk,2013-05-01 10:44:00,
2013-05-01 03:45:00,68.4,53.0,29.73,SE,137,12.0,13.0,58,0.00,,,0.00,0,WeatherHawk,2013-05-01 10:45:00,
2013-05-01 03:47:00,68.2,53.3,29.73,SE,136,11.0,13.0,59,0.00,,,0.00,0,WeatherHawk,2013-05-01 10:47:00,
2013-05-01 03:49:00,68.0,53.1,29.73,SE,130,10.0,14.0,59,0.00,,,0.00,0,WeatherHawk,2013-05-01 10:49:00,
2013-05-01 03:50:00,68.0,53.1,29.73,SE,133,11.0,14.0,59,0.00,,,0.00,0,WeatherHawk,2013-05-01 10:50:00,
2013-05-01 03:53:00,68.0,53.1,29.73,SE,134,12.0,14.0,59,0.00,,,0.00,1,WeatherHawk,2013-05-01 10:53:00,
2013-05-01 03:55:00,68.0,53.1,29.73,SE,138,11.0,14.0,59,0.00,,,0.00,0,WeatherHawk,2013-05-01 10:55:00,
2013-05-01 03:58:00,68.0,53.1,29.73,SE,141,12.0,14.0,59,0.00,,,0.00,0,WeatherHawk,2013-05-01 10:58:00,
2013-05-01 04:00:00,68.0,53.1,29.73,SE,143,10.0,14.0,59,0.00,,,0.00,0,WeatherHawk,2013-05-01 11:00:00,
2013-05-01 04:01:00,68.0,53.1,29.73,SE,131,10.0,14.0,59,0.00,,,0.00,0,WeatherHawk,2013-05-01 11:01:00,
2013-05-01 04:02:00,67.8,53.0,29.73,SE,129,9.0,14.0,59,0.00,,,0.00,0,WeatherHawk,2013-05-01 11:02:00,
2013-05-01 04:03:00,67.8,53.0,29.74,SE,133,12.0,14.0,59,0.00,,,0.00,0,WeatherHawk,2013-05-01 11:03:00,
2013-05-01 04:04:00,67.8,53.0,29.74,SE,126,9.0,14.0,59,0.00,,,0.00,0,WeatherHawk,2013-05-01 11:04:00,
2013-05-01 04:06:00,67.8,53.0,29.74,SE,131,10.0,14.0,59,0.00,,,0.00,0,WeatherHawk,2013-05-01 11:06:00,
2013-05-01 04:08:00,67.8,53.0,29.74,SE,129,8.0,14.0,59,0.00,,,0.00,0,WeatherHawk,2013-05-01 11:08:00,
2013-05-01 04:11:00,67.6,52.8,29.74,SE,132,10.0,13.0,59,0.00,,,0.00,1,WeatherHawk,2013-05-01 11:11:00,
2013-05-01 04:13:00,67.6,52.8,29.74,SE,133,10.0,13.0,59,0.00,,,0.00,0,WeatherHawk,2013-05-01 11:13:00,
2013-05-01 04:14:00,67.6,53.2,29.74,SE,127,11.0,13.0,60,0.00,,,0.00,0,WeatherHawk,2013-05-01 11:14:00,
2013-05-01 04:15:00,67.5,53.1,29.74,SE,133,12.0,13.0,60,0.00,,,0.00,0,WeatherHawk,2013-05-01 11:15:00,
2013-05-01 04:16:00,67.5,53.1,29.74,SE,129,9.0,13.0,60,0.00,,,0.00,0,WeatherHawk,2013-05-01 11:16:00,
2013-05-01 04:18:00,67.5,53.1,29.74,SE,126,11.0,13.0,60,0.00,,,0.00,0,WeatherHawk,2013-05-01 11:18:00,
2013-05-01 04:21:00,67.5,53.1,29.74,SE,146,10.0,13.0,60,0.00,,,0.00,0,WeatherHawk,2013-05-01 11:21:00,
2013-05-01 04:23:00,67.5,53.1,29.75,SE,133,8.0,13.0,60,0.00,,,0.00,0,WeatherHawk,2013-05-01 11:23:00,
2013-05-01 04:25:00,67.3,52.9,29.75,SE,139,9.0,13.0,60,0.00,,,0.00,1,WeatherHawk,2013-05-01 11:25:00,
2013-05-01 04:28:00,67.3,52.9,29.75,SE,135,9.0,13.0,60,0.00,,,0.00,0,WeatherHawk,2013-05-01 11:28:00,
2013-05-01 04:29:00,67.3,52.9,29.75,SE,132,9.0,13.0,60,0.00,,,0.00,0,WeatherHawk,2013-05-01 11:29:00,
2013-05-01 04:31:00,67.3,52.9,29.75,SE,129,9.0,13.0,60,0.00,,,0.00,0,WeatherHawk,2013-05-01 11:31:00,
2013-05-01 04:33:00,67.1,52.7,29.75,SE,133,10.0,13.0,60,0.00,,,0.00,0,WeatherHawk,2013-05-01 11:33:00,
2013-05-01 04:36:00,67.1,52.7,29.75,SE,139,10.0,13.0,60,0.00,,,0.00,0,WeatherHawk,2013-05-01 11:36:00,
2013-05-01 04:37:00,67.1,52.3,29.75,SE,132,8.0,13.0,59,0.00,,,0.00,0,WeatherHawk,2013-05-01 11:37:00,
2013-05-01 04:38:00,67.1,52.3,29.75,SE,137,10.0,13.0,59,0.00,,,0.00,0,WeatherHawk,2013-05-01 11:38:00,
2013-05-01 04:39:00,67.1,52.3,29.75,SE,134,10.0,12.0,59,0.00,,,0.00,1,WeatherHawk,2013-05-01 11:39:00,
2013-05-01 04:42:00,67.1,52.7,29.75,SE,137,9.0,12.0,60,0.00,,,0.00,0,WeatherHawk,2013-05-01 11:42:00,
2013-05-01 04:43:00,67.1,52.7,29.75,SE,131,9.0,-999.0,60,0.00,,,0.00,0,WeatherHawk,2013-05-01 11:43:00,
2013-05-01 04:47:00,66.9,52.6,29.76,SE,129,8.0,12.0,60,0.00,,,0.00,0,WeatherHawk,2013-05-01 11:47:00,
2013-05-01 04:48:00,66.9,52.6,29.76,SE,132,9.0,12.0,60,0.00,,,0.00,0,WeatherHawk,2013-05-01 11:48:00,
2013-05-01 04:51:00,66.9,52.6,29.76,SE,128,10.0,11.0,60,0.00,,,0.00,0,WeatherHawk,2013-05-01 11:51:00,
2013-05-01 04:53:00,66.9,52.6,29.76,SE,134,9.0,-999.0,60,0.00,,,0.00,0,WeatherHawk,2013-05-01 11:53:00,
2013-05-01 04:56:00,66.9,52.6,29.76,SE,132,11.0,11.0,60,0.00,,,0.00,0,WeatherHawk,2013-05-01 11:56:00,
2013-05-01 04:57:00,66.7,52.4,29.76,SE,128,10.0,11.0,60,0.00,,,0.00,0,WeatherHawk,2013-05-01 11:57:00,
2013-05-01 04:58:00,66.7,52.4,29.76,SE,129,9.0,11.0,60,0.00,,,0.00,0,WeatherHawk,2013-05-01 11:58:00,
2013-05-01 05:00:00,66.7,52.4,29.76,SE,134,10.0,12.0,60,0.00,,,0.00,1,WeatherHawk,2013-05-01 12:00:00,
2013-05-01 05:02:00,66.7,52.4,29.76,SE,130,9.0,12.0,60,0.00,,,0.00,0,WeatherHawk,2013-05-01 12:02:00,
2013-05-01 05:04:00,66.6,52.2,29.76,SE,127,11.0,12.0,60,0.00,,,0.00,0,WeatherHawk,2013-05-01 12:04:00,
2013-05-01 05:05:00,66.6,52.2,29.76,SE,129,10.0,12.0,60,0.00,,,0.00,0,WeatherHawk,2013-05-01 12:05:00,
2013-05-01 05:06:00,66.6,52.7,29.76,SE,136,11.0,12.0,61,0.00,,,0.00,0,WeatherHawk,2013-05-01 12:06:00,
2013-05-01 05:10:00,66.6,52.7,29.76,SE,134,10.0,13.0,61,0.00,,,0.00,0,WeatherHawk,2013-05-01 12:10:00,
2013-05-01 05:13:00,66.6,52.7,29.76,SE,136,13.0,13.0,61,0.00,,,0.00,0,WeatherHawk,2013-05-01 12:13:00,
2013-05-01 05:15:00,66.6,52.7,29.76,SE,131,11.0,13.0,61,0.00,,,0.00,1,WeatherHawk,2013-05-01 12:15:00,
2013-05-01 05:17:00,66.6,52.7,29.77,SE,131,13.0,13.0,61,0.00,,,0.00,0,WeatherHawk,2013-05-01 12:17:00,
2013-05-01 05:18:00,66.6,52.7,29.77,SE,129,10.0,0.0,61,0.00,,,0.00,0,WeatherHawk,2013-05-01 12:18:00,
2013-05-01 05:20:00,66.6,52.7,29.77,SE,127,10.0,13.0,61,0.00,,,0.00,0,WeatherHawk,2013-05-01 12:20:00,
2013-05-01 05:23:00,66.6,52.7,29.77,SE,132,10.0,13.0,61,0.00,,,0.00,0,WeatherHawk,2013-05-01 12:23:00,
2013-05-01 05:27:00,66.6,52.2,29.77,SE,141,12.0,13.0,60,0.00,,,0.00,0,WeatherHawk,2013-05-01 12:27:00,
2013-05-01 05:28:00,66.6,52.2,29.77,SE,142,11.0,13.0,60,0.00,,,0.00,0,WeatherHawk,2013-05-01 12:28:00,
2013-05-01 05:30:00,66.6,52.2,29.77,SE,137,13.0,14.0,60,0.00,,,0.00,0,WeatherHawk,2013-05-01 12:30:00,
2013-05-01 05:33:00,66.4,52.1,29.77,SE,129,11.0,14.0,60,0.00,,,0.00,0,WeatherHawk,2013-05-01 12:33:00,
2013-05-01 05:36:00,66.2,51.9,29.77,SE,134,12.0,14.0,60,0.00,,,0.00,0,WeatherHawk,2013-05-01 12:36:00,
2013-05-01 05:37:00,66.2,51.9,29.77,SE,131,11.0,14.0,60,0.00,,,0.00,0,WeatherHawk,2013-05-01 12:37:00,
2013-05-01 05:38:00,66.2,51.9,29.78,SE,142,9.0,14.0,60,0.00,,,0.00,0,WeatherHawk,2013-05-01 12:38:00,
2013-05-01 05:43:00,66.2,51.9,29.78,SE,132,10.0,13.0,60,0.00,,,0.00,0,WeatherHawk,2013-05-01 12:43:00,
2013-05-01 05:44:00,66.2,51.9,29.78,SE,136,11.0,13.0,60,0.00,,,0.00,0,WeatherHawk,2013-05-01 12:44:00,
2013-05-01 05:45:00,66.2,51.9,29.78,SE,136,9.0,13.0,60,0.00,,,0.00,1,WeatherHawk,2013-05-01 12:45:00,
2013-05-01 05:48:00,66.0,51.7,29.78,SE,135,9.0,-999.0,60,0.00,,,0.00,0,WeatherHawk,2013-05-01 12:48:00,
2013-05-01 05:49:00,66.0,51.7,29.78,SE,133,12.0,13.0,60,0.00,,,0.00,1,WeatherHawk,2013-05-01 12:49:00,
2013-05-01 05:51:00,66.0,51.7,29.78,SE,133,9.0,13.0,60,0.00,,,0.00,1,WeatherHawk,2013-05-01 12:51:00,
2013-05-01 05:53:00,66.0,51.7,29.78,SE,130,11.0,13.0,60,0.00,,,0.00,0,WeatherHawk,2013-05-01 12:53:00,
2013-05-01 05:54:00,66.0,51.7,29.78,SE,139,9.0,13.0,60,0.00,,,0.00,1,WeatherHawk,2013-05-01 12:54:00,
2013-05-01 05:57:00,66.0,51.7,29.79,SE,134,12.0,13.0,60,0.00,,,0.00,2,WeatherHawk,2013-05-01 12:57:00,
2013-05-01 05:58:00,66.0,51.7,29.79,SE,141,9.0,13.0,60,0.00,,,0.00,3,WeatherHawk,2013-05-01 12:58:00,
2013-05-01 05:59:00,65.8,51.1,29.79,SE,135,9.0,12.0,59,0.00,,,0.00,4,WeatherHawk,2013-05-01 12:59:00,
2013-05-01 06:00:00,65.8,51.1,29.79,SE,141,10.0,12.0,59,0.00,,,0.00,5,WeatherHawk,2013-05-01 13:00:00,
2013-05-01 06:03:00,65.8,51.1,29.79,SE,133,8.0,12.0,59,0.00,,,0.00,6,WeatherHawk,2013-05-01 13:03:00,
2013-05-01 06:04:00,65.8,51.1,29.79,SE,140,10.0,12.0,59,0.00,,,0.00,7,WeatherHawk,2013-05-01 13:04:00,
2013-05-01 06:06:00,65.8,51.1,29.79,SE,134,10.0,12.0,59,0.00,,,0.00,9,WeatherHawk,2013-05-01 13:06:00,
2013-05-01 06:08:00,65.8,51.1,29.79,SE,131,10.0,-999.0,59,0.00,,,0.00,12,WeatherHawk,2013-05-01 13:08:00,
2013-05-01 06:09:00,65.8,50.6,29.79,SE,130,11.0,11.0,58,0.00,,,0.00,4,WeatherHawk,2013-05-01 13:09:00,
2013-05-01 06:10:00,66.0,50.8,29.79,SE,137,11.0,11.0,58,0.00,,,0.00,10,WeatherHawk,2013-05-01 13:10:00,
2013-05-01 06:12:00,66.0,50.8,29.80,SE,129,8.0,11.0,58,0.00,,,0.00,19,WeatherHawk,2013-05-01 13:12:00,
2013-05-01 06:13:00,66.0,50.8,29.80,SE,126,9.0,-999.0,58,0.00,,,0.00,18,WeatherHawk,2013-05-01 13:13:00,
2013-05-01 06:14:00,66.0,50.8,29.80,SE,129,10.0,11.0,58,0.00,,,0.00,18,WeatherHawk,2013-05-01 13:14:00,
2013-05-01 06:15:00,66.0,50.8,29.80,SE,132,10.0,11.0,58,0.00,,,0.00,19,WeatherHawk,2013-05-01 13:15:00,
2013-05-01 06:16:00,66.0,50.8,29.80,SE,128,9.0,11.0,58,0.00,,,0.00,21,WeatherHawk,2013-05-01 13:16:00,
2013-05-01 06:20:00,66.2,50.5,29.80,SE,129,9.0,12.0,57,0.00,,,0.00,23,WeatherHawk,2013-05-01 13:20:00,
2013-05-01 06:21:00,66.2,50.5,29.81,SE,134,9.0,12.0,57,0.00,,,0.00,25,WeatherHawk,2013-05-01 13:21:00,
2013-05-01 06:22:00,66.2,50.5,29.80,SE,130,12.0,12.0,57,0.00,,,0.00,22,WeatherHawk,2013-05-01 13:22:00,
2013-05-01 06:26:00,66.2,50.0,29.81,ESE,117,9.0,12.0,56,0.00,,,0.00,31,WeatherHawk,2013-05-01 13:26:00,
2013-05-01 06:27:00,66.4,50.2,29.81,SE,128,10.0,12.0,56,0.00,,,0.00,31,WeatherHawk,2013-05-01 13:27:00,
2013-05-01 06:28:00,66.4,50.2,29.81,ESE,123,12.0,12.0,56,0.00,,,0.00,28,WeatherHawk,2013-05-01 13:28:00,
2013-05-01 06:32:00,66.9,50.2,29.81,SE,130,11.0,13.0,55,0.00,,,0.00,34,WeatherHawk,2013-05-01 13:32:00,
2013-05-01 06:33:00,66.9,49.7,29.81,SE,130,12.0,13.0,54,0.00,,,0.00,34,WeatherHawk,2013-05-01 13:33:00,
2013-05-01 06:34:00,66.9,49.7,29.81,SE,132,11.0,13.0,54,0.00,,,0.00,37,WeatherHawk,2013-05-01 13:34:00,
2013-05-01 06:38:00,66.9,49.7,29.81,SE,125,6.0,13.0,54,0.00,,,0.00,45,WeatherHawk,2013-05-01 13:38:00,
2013-05-01 06:39:00,66.9,49.7,29.81,ESE,121,11.0,15.0,54,0.00,,,0.00,44,WeatherHawk,2013-05-01 13:39:00,
2013-05-01 06:40:00,66.9,49.7,29.81,SE,129,9.0,15.0,54,0.00,,,0.00,43,WeatherHawk,2013-05-01 13:40:00,
2013-05-01 06:42:00,67.1,49.4,29.81,SE,132,10.0,15.0,53,0.00,,,0.00,49,WeatherHawk,2013-05-01 13:42:00,
2013-05-01 06:43:00,67.1,49.4,29.81,SE,130,12.0,15.0,53,0.00,,,0.00,45,WeatherHawk,2013-05-01 13:43:00,
2013-05-01 06:46:00,67.3,49.6,29.82,SE,141,12.0,15.0,53,0.00,,,0.00,48,WeatherHawk,2013-05-01 13:46:00,
2013-05-01 06:47:00,67.3,49.6,29.82,SE,138,14.0,15.0,53,0.00,,,0.00,53,WeatherHawk,2013-05-01 13:47:00,
2013-05-01 06:48:00,67.3,49.0,29.82,SE,132,12.0,-999.0,52,0.00,,,0.00,51,WeatherHawk,2013-05-01 13:48:00,
2013-05-01 06:49:00,67.5,49.7,29.82,SE,133,12.0,14.0,53,0.00,,,0.00,51,WeatherHawk,2013-05-01 13:49:00,
2013-05-01 06:50:00,67.5,49.2,29.82,SE,140,11.0,14.0,52,0.00,,,0.00,53,WeatherHawk,2013-05-01 13:50:00,
2013-05-01 06:52:00,67.5,49.2,29.82,ESE,114,11.0,14.0,52,0.00,,,0.00,58,WeatherHawk,2013-05-01 13:52:00,
2013-05-01 06:54:00,67.6,49.4,20.94,ESE,116,6.0,14.0,52,0.00,,,0.00,64,WeatherHawk,2013-05-01 13:54:00,
2013-05-01 06:57:00,67.8,49.0,29.82,SE,124,10.0,14.0,51,0.00,,,0.00,66,WeatherHawk,2013-05-01 13:57:00,
2013-05-01 06:58:00,67.8,49.0,29.83,SE,125,9.0,14.0,51,0.00,,,0.00,68,WeatherHawk,2013-05-01 13:58:00,
2013-05-01 07:03:00,68.0,49.2,29.83,SE,132,10.0,-999.0,51,0.00,,,0.00,68,WeatherHawk,2013-05-01 14:03:00,
2013-05-01 07:04:00,68.2,49.4,29.83,SE,132,9.0,15.0,51,0.00,,,0.00,76,WeatherHawk,2013-05-01 14:04:00,
2013-05-01 07:06:00,68.4,49.0,29.83,SE,141,11.0,15.0,50,0.00,,,0.00,79,WeatherHawk,2013-05-01 14:06:00,
2013-05-01 07:07:00,68.4,49.0,29.83,SE,143,10.0,15.0,50,0.00,,,0.00,81,WeatherHawk,2013-05-01 14:07:00,
2013-05-01 07:08:00,68.4,49.5,29.83,SE,138,9.0,-999.0,51,0.00,,,0.00,82,WeatherHawk,2013-05-01 14:08:00,
2013-05-01 07:12:00,68.7,49.3,29.83,SE,145,12.0,12.0,50,0.00,,,0.00,82,WeatherHawk,2013-05-01 14:12:00,
2013-05-01 07:13:00,68.7,49.3,29.83,SSE,149,11.0,12.0,50,0.00,,,0.00,82,WeatherHawk,2013-05-01 14:13:00,
2013-05-01 07:18:00,68.9,49.5,29.84,SE,140,9.0,12.0,50,0.00,,,0.00,92,WeatherHawk,2013-05-01 14:18:00,
2013-05-01 07:19:00,69.1,49.1,29.84,SE,145,9.0,13.0,49,0.00,,,0.00,95,WeatherHawk,2013-05-01 14:19:00,
2013-05-01 07:20:00,69.3,48.7,29.84,SE,139,11.0,13.0,48,0.00,,,0.00,98,WeatherHawk,2013-05-01 14:20:00,
2013-05-01 07:21:00,69.3,49.3,29.84,SE,135,10.0,13.0,49,0.00,,,0.00,91,WeatherHawk,2013-05-01 14:21:00,
2013-05-01 07:25:00,69.4,48.9,29.84,SE,130,11.0,13.0,48,0.00,,,0.00,97,WeatherHawk,2013-05-01 14:25:00,
2013-05-01 07:27:00,69.6,49.0,29.84,SE,141,10.0,13.0,48,0.00,,,0.00,106,WeatherHawk,2013-05-01 14:27:00,
2013-05-01 07:28:00,69.6,49.0,29.84,SSE,147,11.0,13.0,48,0.00,,,0.00,104,WeatherHawk,2013-05-01 14:28:00,
2013-05-01 07:29:00,69.8,48.6,29.84,SE,142,11.0,14.0,47,0.00,,,0.00,108,WeatherHawk,2013-05-01 14:29:00,
2013-05-01 07:30:00,70.0,48.8,29.84,SE,132,11.0,14.0,47,0.00,,,0.00,103,WeatherHawk,2013-05-01 14:30:00,
2013-05-01 07:31:00,70.0,48.8,29.84,SE,145,10.0,14.0,47,0.00,,,0.00,110,WeatherHawk,2013-05-01 14:31:00,
2013-05-01 07:33:00,70.0,48.8,29.84,SE,139,13.0,14.0,47,0.00,,,0.00,104,WeatherHawk,2013-05-01 14:33:00,
2013-05-01 07:35:00,70.2,49.0,29.84,SSE,149,11.0,14.0,47,0.00,,,0.00,112,WeatherHawk,2013-05-01 14:35:00,
2013-05-01 07:36:00,70.3,48.6,29.84,SSE,148,11.0,14.0,46,0.00,,,0.00,109,WeatherHawk,2013-05-01 14:36:00,
2013-05-01 07:38:00,70.3,49.1,29.84,SSE,149,12.0,14.0,47,0.00,,,0.00,113,WeatherHawk,2013-05-01 14:38:00,
2013-05-01 07:39:00,70.3,49.1,29.84,SSE,149,11.0,14.0,47,0.00,,,0.00,112,WeatherHawk,2013-05-01 14:39:00,
2013-05-01 07:42:00,70.5,48.7,29.85,SE,141,11.0,14.0,46,0.00,,,0.00,124,WeatherHawk,2013-05-01 14:42:00,
2013-05-01 07:44:00,70.7,48.9,29.85,SSE,148,10.0,14.0,46,0.00,,,0.00,125,WeatherHawk,2013-05-01 14:44:00,
2013-05-01 07:47:00,71.2,48.8,29.85,SE,135,12.0,14.0,45,0.00,,,0.00,122,WeatherHawk,2013-05-01 14:47:00,
2013-05-01 07:49:00,71.1,48.0,29.85,SE,134,9.0,14.0,44,0.00,,,0.00,131,WeatherHawk,2013-05-01 14:49:00,
2013-05-01 07:51:00,71.2,48.2,29.85,SE,144,11.0,13.0,44,0.00,,,0.00,129,WeatherHawk,2013-05-01 14:51:00,
2013-05-01 07:53:00,71.4,47.7,29.85,SSE,158,15.0,15.0,43,0.00,,,0.00,132,WeatherHawk,2013-05-01 14:53:00,
2013-05-01 07:55:00,71.4,47.7,29.85,SSE,156,11.0,13.0,43,0.00,,,0.00,132,WeatherHawk,2013-05-01 14:55:00,
2013-05-01 07:56:00,71.6,47.9,29.85,SSE,159,13.0,13.0,43,0.00,,,0.00,133,WeatherHawk,2013-05-01 14:56:00,
2013-05-01 07:59:00,71.8,48.7,29.85,SSE,157,11.0,13.0,44,0.00,,,0.00,137,WeatherHawk,2013-05-01 14:59:00,
2013-05-01 08:00:00,71.8,48.7,29.85,SSE,149,11.0,0.0,44,0.00,,,0.00,145,WeatherHawk,2013-05-01 15:00:00,
2013-05-01 08:02:00,72.0,48.8,29.85,SSE,151,10.0,15.0,44,0.00,,,0.00,143,WeatherHawk,2013-05-01 15:02:00,
2013-05-01 08:05:00,72.1,49.0,29.86,SSE,163,11.0,15.0,44,0.00,,,0.00,146,WeatherHawk,2013-05-01 15:05:00,
2013-05-01 08:07:00,72.1,49.0,29.86,SE,142,9.0,15.0,44,0.00,,,0.00,152,WeatherHawk,2013-05-01 15:07:00,
2013-05-01 08:08:00,72.3,49.2,29.86,South,171,12.0,15.0,44,0.00,,,0.00,149,WeatherHawk,2013-05-01 15:08:00,
2013-05-01 08:12:00,72.3,49.2,29.86,SE,137,9.0,13.0,44,0.00,,,0.00,160,WeatherHawk,2013-05-01 15:12:00,
2013-05-01 08:13:00,72.7,48.9,29.86,SSE,147,11.0,13.0,43,0.00,,,0.00,159,WeatherHawk,2013-05-01 15:13:00,
2013-05-01 08:14:00,72.7,48.9,29.86,SSE,147,11.0,13.0,43,0.00,,,0.00,159,WeatherHawk,2013-05-01 15:14:00,
2013-05-01 08:18:00,72.9,49.0,29.86,SSE,152,10.0,13.0,43,0.00,,,0.00,167,WeatherHawk,2013-05-01 15:18:00,
2013-05-01 08:19:00,72.9,49.0,29.86,SSE,152,10.0,13.0,43,0.00,,,0.00,167,WeatherHawk,2013-05-01 15:19:00,
2013-05-01 08:20:00,72.9,49.0,29.86,SE,143,8.0,13.0,43,0.00,,,0.00,170,WeatherHawk,2013-05-01 15:20:00,
2013-05-01 08:22:00,73.0,49.2,29.86,SSE,151,8.0,13.0,43,0.00,,,0.00,172,WeatherHawk,2013-05-01 15:22:00,
2013-05-01 08:24:00,73.0,48.6,29.86,SSE,168,10.0,-999.0,42,0.00,,,0.00,166,WeatherHawk,2013-05-01 15:24:00,
2013-05-01 08:29:00,73.6,49.1,29.86,SSE,168,9.0,13.0,42,0.00,,,0.00,177,WeatherHawk,2013-05-01 15:29:00,
2013-05-01 08:34:00,73.8,48.6,29.87,SSE,148,9.0,12.0,41,0.00,,,0.00,186,WeatherHawk,2013-05-01 15:34:00,
2013-05-01 08:38:00,73.9,48.1,29.87,South,174,8.0,12.0,40,0.00,,,0.00,182,WeatherHawk,2013-05-01 15:38:00,
2013-05-01 08:39:00,74.1,48.2,29.87,South,171,8.0,12.0,40,0.00,,,0.00,186,WeatherHawk,2013-05-01 15:39:00,
2013-05-01 08:43:00,74.1,48.2,29.88,SSE,162,7.0,12.0,40,0.00,,,0.00,189,WeatherHawk,2013-05-01 15:43:00,
2013-05-01 08:44:00,74.1,48.2,29.88,SSE,162,7.0,12.0,40,0.00,,,0.00,189,WeatherHawk,2013-05-01 15:44:00,
2013-05-01 08:45:00,74.3,48.4,29.88,SSE,162,7.0,12.0,40,0.00,,,0.00,197,WeatherHawk,2013-05-01 15:45:00,
2013-05-01 08:48:00,74.3,47.7,29.88,SSE,164,4.0,12.0,39,0.00,,,0.00,200,WeatherHawk,2013-05-01 15:48:00,
2013-05-01 08:49:00,74.3,47.7,29.88,SSE,164,4.0,12.0,39,0.00,,,0.00,200,WeatherHawk,2013-05-01 15:49:00,
2013-05-01 08:54:00,75.2,48.5,29.88,SW,222,3.0,10.0,39,0.00,,,0.00,208,WeatherHawk,2013-05-01 15:54:00,
2013-05-01 08:55:00,75.2,47.8,29.88,South,181,8.0,10.0,38,0.00,,,0.00,200,WeatherHawk,2013-05-01 15:55:00,
2013-05-01 08:56:00,75.0,47.7,29.88,South,186,5.0,10.0,38,0.00,,,0.00,209,WeatherHawk,2013-05-01 15:56:00,
2013-05-01 09:00:00,74.8,47.5,29.88,SSE,162,5.0,9.0,38,0.00,,,0.00,212,WeatherHawk,2013-05-01 16:00:00,
2013-05-01 09:02:00,75.2,47.8,29.89,South,187,5.0,9.0,38,0.00,,,0.00,215,WeatherHawk,2013-05-01 16:02:00,
2013-05-01 09:04:00,75.4,48.0,29.89,SSW,202,5.0,-999.0,38,0.00,,,0.00,213,WeatherHawk,2013-05-01 16:04:00,
2013-05-01 09:06:00,75.9,47.8,29.89,South,170,4.0,9.0,37,0.00,,,0.00,220,WeatherHawk,2013-05-01 16:06:00,
2013-05-01 09:08:00,75.9,47.8,29.89,SE,131,4.0,9.0,37,0.00,,,0.00,220,WeatherHawk,2013-05-01 16:08:00,
2013-05-01 09:10:00,75.9,47.8,29.89,SW,214,5.0,7.0,37,0.00,,,0.00,223,WeatherHawk,2013-05-01 16:10:00,
2013-05-01 09:13:00,76.1,47.9,29.89,SSW,208,3.0,-999.0,37,0.00,,,0.00,226,WeatherHawk,2013-05-01 16:13:00,
2013-05-01 09:14:00,75.9,47.8,29.89,South,184,1.0,7.0,37,0.00,,,0.00,228,WeatherHawk,2013-05-01 16:14:00,
2013-05-01 09:15:00,76.1,47.9,29.89,SW,225,2.0,7.0,37,0.00,,,0.00,229,WeatherHawk,2013-05-01 16:15:00,
2013-05-01 09:16:00,76.3,48.1,29.89,WSW,255,2.0,7.0,37,0.00,,,0.00,230,WeatherHawk,2013-05-01 16:16:00,
2013-05-01 09:18:00,76.6,47.7,29.89,SW,215,3.0,7.0,36,0.00,,,0.00,230,WeatherHawk,2013-05-01 16:18:00,
2013-05-01 09:21:00,76.8,47.8,29.89,WSW,247,2.0,7.0,36,0.00,,,0.00,235,WeatherHawk,2013-05-01 16:21:00,
2013-05-01 09:22:00,77.0,48.0,29.89,SW,218,2.0,7.0,36,0.00,,,0.00,235,WeatherHawk,2013-05-01 16:22:00,
2013-05-01 09:23:00,77.0,48.0,29.89,SSW,213,5.0,7.0,36,0.00,,,0.00,234,WeatherHawk,2013-05-01 16:23:00,
2013-05-01 09:24:00,77.2,48.1,29.89,West,262,4.0,7.0,36,0.00,,,0.00,233,WeatherHawk,2013-05-01 16:24:00,
2013-05-01 09:26:00,77.2,48.1,29.89,SSW,210,5.0,7.0,36,0.00,,,0.00,233,WeatherHawk,2013-05-01 16:26:00,
2013-05-01 09:27:00,77.2,48.1,29.89,SSW,210,6.0,7.0,36,0.00,,,0.00,239,WeatherHawk,2013-05-01 16:27:00,
2013-05-01 09:29:00,76.8,47.8,29.89,SW,221,2.0,8.0,36,0.00,,,0.00,242,WeatherHawk,2013-05-01 16:29:00,
2013-05-01 09:30:00,77.0,48.0,29.89,NE,56,0.0,8.0,36,0.00,,,0.00,243,WeatherHawk,2013-05-01 16:30:00,
2013-05-01 09:31:00,77.2,47.4,29.89,NE,38,1.0,8.0,35,0.00,,,0.00,244,WeatherHawk,2013-05-01 16:31:00,
2013-05-01 09:32:00,77.4,47.5,29.89,NNE,29,1.0,8.0,35,0.00,,,0.00,245,WeatherHawk,2013-05-01 16:32:00,
2013-05-01 09:35:00,77.5,47.7,29.89,West,279,1.0,8.0,35,0.00,,,0.00,247,WeatherHawk,2013-05-01 16:35:00,
2013-05-01 09:37:00,78.1,48.2,29.89,WSW,245,4.0,8.0,35,0.00,,,0.00,250,WeatherHawk,2013-05-01 16:37:00,
2013-05-01 09:38:00,78.3,47.6,29.89,WSW,256,4.0,8.0,34,0.00,,,0.00,248,WeatherHawk,2013-05-01 16:38:00,
2013-05-01 09:41:00,77.9,48.0,29.90,WNW,293,3.0,5.0,35,0.00,,,0.00,251,WeatherHawk,2013-05-01 16:41:00,
2013-05-01 09:43:00,77.7,47.9,29.90,NNW,333,3.0,5.0,35,0.00,,,0.00,254,WeatherHawk,2013-05-01 16:43:00,
2013-05-01 09:48:00,78.4,47.7,29.90,SW,223,5.0,5.0,34,0.00,,,0.00,252,WeatherHawk,2013-05-01 16:48:00,
2013-05-01 09:49:00,78.3,47.6,29.90,SSW,207,5.0,6.0,34,0.00,,,0.00,257,WeatherHawk,2013-05-01 16:49:00,
2013-05-01 09:51:00,77.9,47.2,29.90,SE,127,3.0,6.0,34,0.00,,,0.00,259,WeatherHawk,2013-05-01 16:51:00,
2013-05-01 09:52:00,77.9,48.0,29.90,SSW,200,3.0,6.0,35,0.00,,,0.00,259,WeatherHawk,2013-05-01 16:52:00,
2013-05-01 09:53:00,78.1,47.4,29.90,SSW,213,4.0,-999.0,34,0.00,,,0.00,260,WeatherHawk,2013-05-01 16:53:00,
2013-05-01 09:54:00,78.3,47.6,29.90,WSW,240,3.0,6.0,34,0.00,,,0.00,263,WeatherHawk,2013-05-01 16:54:00,
2013-05-01 09:55:00,78.3,47.6,29.90,SW,223,3.0,6.0,34,0.00,,,0.00,264,WeatherHawk,2013-05-01 16:55:00,
2013-05-01 09:58:00,78.8,48.0,29.90,SW,221,2.0,6.0,34,0.00,,,0.00,265,WeatherHawk,2013-05-01 16:58:00,
2013-05-01 09:59:00,78.8,47.2,29.90,South,180,3.0,6.0,33,0.00,,,0.00,267,WeatherHawk,2013-05-01 16:59:00,
2013-05-01 10:00:00,78.6,47.9,29.90,SSE,151,2.0,6.0,34,0.00,,,0.00,268,WeatherHawk,2013-05-01 17:00:00,
2013-05-01 10:04:00,79.3,47.7,29.90,WSW,251,4.0,6.0,33,0.00,,,0.00,267,WeatherHawk,2013-05-01 17:04:00,
2013-05-01 10:07:00,80.1,48.3,29.90,SSW,193,4.0,6.0,33,0.00,,,0.00,261,WeatherHawk,2013-05-01 17:07:00,
2013-05-01 10:08:00,80.2,47.7,29.90,SSW,207,6.0,6.0,32,0.00,,,0.00,270,WeatherHawk,2013-05-01 17:08:00,
2013-05-01 10:10:00,79.9,47.4,29.90,SSW,193,3.0,9.0,32,0.00,,,0.00,274,WeatherHawk,2013-05-01 17:10:00,
2013-05-01 10:11:00,79.7,48.0,29.90,South,186,2.0,9.0,33,0.00,,,0.00,275,WeatherHawk,2013-05-01 17:11:00,
2013-05-01 10:12:00,79.9,48.2,29.90,SE,135,1.0,9.0,33,0.00,,,0.00,275,WeatherHawk,2013-05-01 17:12:00,
2013-05-01 10:13:00,79.9,48.2,29.90,SE,135,1.0,9.0,33,0.00,,,0.00,275,WeatherHawk,2013-05-01 17:13:00,
2013-05-01 10:17:00,80.1,49.1,29.90,WNW,282,7.0,9.0,34,0.00,,,0.00,282,WeatherHawk,2013-05-01 17:17:00,
2013-05-01 10:18:00,80.1,49.1,29.90,WNW,282,7.0,9.0,34,0.00,,,0.00,282,WeatherHawk,2013-05-01 17:18:00,
2013-05-01 10:22:00,79.7,48.8,29.90,WSW,248,5.0,7.0,34,0.00,,,0.00,283,WeatherHawk,2013-05-01 17:22:00,
2013-05-01 10:23:00,79.7,48.0,29.90,WSW,256,6.0,7.0,33,0.00,,,0.00,283,WeatherHawk,2013-05-01 17:23:00,
2013-05-01 10:25:00,79.5,48.7,29.90,WNW,301,3.0,7.0,34,0.00,,,0.00,286,WeatherHawk,2013-05-01 17:25:00,
2013-05-01 10:27:00,79.5,50.2,29.91,WNW,290,4.0,7.0,36,0.00,,,0.00,287,WeatherHawk,2013-05-01 17:27:00,
2013-05-01 10:28:00,79.7,51.1,29.91,WNW,298,5.0,7.0,37,0.00,,,0.00,288,WeatherHawk,2013-05-01 17:28:00,
2013-05-01 10:30:00,79.7,51.1,29.91,WNW,302,7.0,7.0,37,0.00,,,0.00,291,WeatherHawk,2013-05-01 17:30:00,
2013-05-01 10:33:00,79.3,51.5,29.91,NW,306,7.0,-999.0,38,0.00,,,0.00,294,WeatherHawk,2013-05-01 17:33:00,
2013-05-01 10:35:00,79.7,51.1,29.91,NW,308,6.0,7.0,37,0.00,,,0.00,292,WeatherHawk,2013-05-01 17:35:00,
2013-05-01 10:39:00,79.5,50.2,29.91,WNW,302,6.0,9.0,36,0.00,,,0.00,297,WeatherHawk,2013-05-01 17:39:00,
2013-05-01 10:40:00,79.7,50.4,29.91,NNW,329,4.0,9.0,36,0.00,,,0.00,296,WeatherHawk,2013-05-01 17:40:00,
2013-05-01 10:41:00,79.7,51.1,29.91,WNW,302,6.0,9.0,37,0.00,,,0.00,297,WeatherHawk,2013-05-01 17:41:00,
2013-05-01 10:42:00,79.7,51.1,29.91,NW,316,6.0,9.0,37,0.00,,,0.00,301,WeatherHawk,2013-05-01 17:42:00,
2013-05-01 10:43:00,79.5,50.9,29.91,NW,325,7.0,9.0,37,0.00,,,0.00,298,WeatherHawk,2013-05-01 17:43:00,
2013-05-01 10:46:00,79.7,51.1,29.91,WNW,290,5.0,9.0,37,0.00,,,0.00,300,WeatherHawk,2013-05-01 17:46:00,
2013-05-01 10:48:00,79.7,51.1,29.91,WNW,291,6.0,9.0,37,0.00,,,0.00,301,WeatherHawk,2013-05-01 17:48:00,
2013-05-01 10:49:00,79.7,51.1,29.91,NW,321,6.0,0.0,37,0.00,,,0.00,303,WeatherHawk,2013-05-01 17:49:00,
2013-05-01 10:50:00,79.7,50.4,29.91,North,354,4.0,0.0,36,0.00,,,0.00,303,WeatherHawk,2013-05-01 17:50:00,
2013-05-01 10:51:00,79.5,51.7,29.91,West,267,4.0,9.0,38,0.00,,,0.00,301,WeatherHawk,2013-05-01 17:51:00,
2013-05-01 10:56:00,80.2,50.1,29.91,WNW,284,5.0,9.0,35,0.00,,,0.00,304,WeatherHawk,2013-05-01 17:56:00,
2013-05-01 10:57:00,80.6,48.8,29.91,NNW,330,4.0,9.0,33,0.00,,,0.00,306,WeatherHawk,2013-05-01 17:57:00,
2013-05-01 10:59:00,80.6,48.8,29.91,West,267,3.0,0.0,33,0.00,,,0.00,306,WeatherHawk,2013-05-01 17:59:00,
2013-05-01 11:01:00,80.8,49.0,29.91,NE,39,0.0,8.0,33,0.00,,,0.00,305,WeatherHawk,2013-05-01 18:01:00,
2013-05-01 11:02:00,81.0,49.1,29.91,NW,317,6.0,8.0,33,0.00,,,0.00,308,WeatherHawk,2013-05-01 18:02:00,
2013-05-01 11:03:00,81.0,49.1,29.91,SW,221,2.0,8.0,33,0.00,,,0.00,306,WeatherHawk,2013-05-01 18:03:00,
2013-05-01 11:05:00,81.1,48.5,29.91,West,263,4.0,8.0,32,0.00,,,0.00,309,WeatherHawk,2013-05-01 18:05:00,
2013-05-01 11:07:00,81.3,48.6,29.91,West,273,2.0,8.0,32,0.00,,,0.00,309,WeatherHawk,2013-05-01 18:07:00,
2013-05-01 11:08:00,81.7,47.2,29.91,North,3,6.0,8.0,30,0.00,,,0.00,313,WeatherHawk,2013-05-01 18:08:00,
2013-05-01 11:11:00,81.3,46.9,29.91,East,86,3.0,8.0,30,0.00,,,0.00,310,WeatherHawk,2013-05-01 18:11:00,
2013-05-01 11:13:00,81.3,47.8,29.91,ENE,62,2.0,8.0,31,0.00,,,0.00,309,WeatherHawk,2013-05-01 18:13:00,
2013-05-01 11:15:00,82.0,48.4,29.91,NNW,348,5.0,8.0,31,0.00,,,0.00,312,WeatherHawk,2013-05-01 18:15:00,
2013-05-01 11:16:00,82.2,48.5,29.91,NNW,336,6.0,8.0,31,0.00,,,0.00,314,WeatherHawk,2013-05-01 18:16:00,
2013-05-01 11:17:00,82.4,49.6,29.91,North,354,4.0,8.0,32,0.00,,,0.00,314,WeatherHawk,2013-05-01 18:17:00,
2013-05-01 11:18:00,82.4,49.6,29.91,North,354,4.0,8.0,32,0.00,,,0.00,314,WeatherHawk,2013-05-01 18:18:00,
2013-05-01 11:22:00,81.5,49.6,29.91,North,351,1.0,8.0,33,0.00,,,0.00,313,WeatherHawk,2013-05-01 18:22:00,
2013-05-01 11:23:00,81.5,49.6,29.91,North,351,1.0,8.0,33,0.00,,,0.00,313,WeatherHawk,2013-05-01 18:23:00,
2013-05-01 11:24:00,81.5,51.9,29.91,NW,306,6.0,8.0,36,0.00,,,0.00,316,WeatherHawk,2013-05-01 18:24:00,
2013-05-01 11:25:00,81.9,51.5,29.91,WNW,292,7.0,8.0,35,0.00,,,0.00,319,WeatherHawk,2013-05-01 18:25:00,
2013-05-01 11:28:00,82.2,46.8,29.92,NNE,20,3.0,8.0,29,0.00,,,0.00,317,WeatherHawk,2013-05-01 18:28:00,
2013-05-01 11:30:00,82.6,47.1,29.91,ENE,78,4.0,12.0,29,0.00,,,0.00,314,WeatherHawk,2013-05-01 18:30:00,
2013-05-01 11:33:00,82.9,47.4,29.91,WNW,287,8.0,12.0,29,0.00,,,0.00,323,WeatherHawk,2013-05-01 18:33:00,
2013-05-01 11:35:00,83.1,45.6,29.91,NNE,33,10.0,12.0,27,0.00,,,0.00,323,WeatherHawk,2013-05-01 18:35:00,
2013-05-01 11:36:00,82.9,46.5,29.91,NE,38,9.0,12.0,28,0.00,,,0.00,325,WeatherHawk,2013-05-01 18:36:00,
2013-05-01 11:38:00,82.2,46.8,29.91,North,6,10.0,12.0,29,0.00,,,0.00,326,WeatherHawk,2013-05-01 18:38:00,
2013-05-01 11:39:00,82.2,46.8,29.91,North,4,6.0,14.0,29,0.00,,,0.00,317,WeatherHawk,2013-05-01 18:39:00,
2013-05-01 11:41:00,82.4,46.9,29.91,North,10,6.0,14.0,29,0.00,,,0.00,325,WeatherHawk,2013-05-01 18:41:00,
2013-05-01 11:44:00,82.9,47.4,29.91,NNE,20,6.0,14.0,29,0.00,,,0.00,322,WeatherHawk,2013-05-01 18:44:00,
2013-05-01 11:47:00,82.8,46.3,29.91,NE,51,5.0,14.0,28,0.00,,,0.00,323,WeatherHawk,2013-05-01 18:47:00,
2013-05-01 11:48:00,82.8,46.3,29.91,NE,51,5.0,-999.0,28,0.00,,,0.00,323,WeatherHawk,2013-05-01 18:48:00,
2013-05-01 11:50:00,83.5,46.0,29.91,NE,48,7.0,10.0,27,0.00,,,0.00,324,WeatherHawk,2013-05-01 18:50:00,
2013-05-01 11:53:00,83.1,45.6,29.91,NNW,328,2.0,10.0,27,0.00,,,0.00,323,WeatherHawk,2013-05-01 18:53:00,
2013-05-01 11:58:00,83.5,46.0,29.91,ESE,102,2.0,10.0,27,0.00,,,0.00,319,WeatherHawk,2013-05-01 18:58:00,
2013-05-01 11:59:00,83.7,46.1,29.91,ESE,120,3.0,11.0,27,0.00,,,0.00,318,WeatherHawk,2013-05-01 18:59:00,
2013-05-01 12:02:00,83.5,46.0,29.91,SE,126,2.0,11.0,27,0.00,,,0.00,319,WeatherHawk,2013-05-01 19:02:00,
2013-05-01 12:03:00,84.0,45.4,29.91,ESE,107,13.0,13.0,26,0.00,,,0.00,301,WeatherHawk,2013-05-01 19:03:00,
2013-05-01 12:05:00,84.7,45.0,29.91,ESE,105,7.0,11.0,25,0.00,,,0.00,315,WeatherHawk,2013-05-01 19:05:00,
2013-05-01 12:06:00,84.7,46.0,29.91,NE,37,8.0,11.0,26,0.00,,,0.00,323,WeatherHawk,2013-05-01 19:06:00,
2013-05-01 12:07:00,84.9,44.1,29.91,NE,48,10.0,11.0,24,0.00,,,0.00,330,WeatherHawk,2013-05-01 19:07:00,
2013-05-01 12:09:00,84.6,44.8,29.91,NNE,29,18.0,18.0,25,0.00,,,0.00,332,WeatherHawk,2013-05-01 19:09:00,
2013-05-01 12:13:00,84.6,43.8,29.91,North,4,6.0,14.0,24,0.00,,,0.00,327,WeatherHawk,2013-05-01 19:13:00,
2013-05-01 12:14:00,85.1,44.2,29.91,East,86,13.0,14.0,24,0.00,,,0.00,329,WeatherHawk,2013-05-01 19:14:00,
2013-05-01 12:16:00,85.3,43.3,29.91,East,95,9.0,14.0,23,0.00,,,0.00,325,WeatherHawk,2013-05-01 19:16:00,
2013-05-01 12:18:00,85.1,43.1,29.91,ESE,109,7.0,14.0,23,0.00,,,0.00,318,WeatherHawk,2013-05-01 19:18:00,
2013-05-01 12:19:00,85.5,44.5,29.91,ESE,110,5.0,18.0,24,0.00,,,0.00,321,WeatherHawk,2013-05-01 19:19:00,
2013-05-01 12:20:00,85.5,44.5,29.91,SE,132,7.0,18.0,24,0.00,,,0.00,312,WeatherHawk,2013-05-01 19:20:00,
2013-05-01 12:23:00,85.6,44.7,29.91,ENE,76,10.0,18.0,24,0.00,,,0.00,333,WeatherHawk,2013-05-01 19:23:00,
2013-05-01 12:25:00,85.5,43.4,29.91,ESE,113,6.0,18.0,23,0.00,,,0.00,324,WeatherHawk,2013-05-01 19:25:00,
2013-05-01 12:27:00,85.1,44.2,29.91,East,91,3.0,18.0,24,0.00,,,0.00,331,WeatherHawk,2013-05-01 19:27:00,
2013-05-01 12:28:00,85.3,44.4,29.91,ENE,68,5.0,18.0,24,0.00,,,0.00,329,WeatherHawk,2013-05-01 19:28:00,
2013-05-01 12:32:00,85.8,43.7,29.90,NE,38,12.0,12.0,23,0.00,,,0.00,337,WeatherHawk,2013-05-01 19:32:00,
2013-05-01 12:33:00,85.6,43.6,29.91,NNE,29,3.0,11.0,23,0.00,,,0.00,332,WeatherHawk,2013-05-01 19:33:00,
2013-05-01 12:34:00,85.6,43.6,29.90,NNW,338,2.0,11.0,23,0.00,,,0.00,331,WeatherHawk,2013-05-01 19:34:00,
2013-05-01 12:38:00,86.0,43.9,29.90,ENE,78,6.0,11.0,23,0.00,,,0.00,335,WeatherHawk,2013-05-01 19:38:00,
2013-05-01 12:39:00,86.0,43.9,29.90,SE,137,6.0,13.0,23,0.00,,,0.00,325,WeatherHawk,2013-05-01 19:39:00,
2013-05-01 12:42:00,87.1,43.6,29.90,ENE,63,12.0,13.0,22,0.00,,,0.00,333,WeatherHawk,2013-05-01 19:42:00,
2013-05-01 12:43:00,87.1,43.6,29.90,ENE,63,12.0,-999.0,22,0.00,,,0.00,333,WeatherHawk,2013-05-01 19:43:00,
2013-05-01 12:44:00,86.4,43.0,29.90,NE,41,5.0,13.0,22,0.00,,,0.00,333,WeatherHawk,2013-05-01 19:44:00,
2013-05-01 12:45:00,86.0,42.7,29.90,North,6,6.0,13.0,22,0.00,,,0.00,332,WeatherHawk,2013-05-01 19:45:00,
2013-05-01 12:48:00,86.5,43.1,29.90,ENE,75,10.0,-999.0,22,0.00,,,0.00,335,WeatherHawk,2013-05-01 19:48:00,
2013-05-01 12:52:00,86.4,43.0,29.90,WNW,284,2.0,13.0,22,0.00,,,0.00,328,WeatherHawk,2013-05-01 19:52:00,
2013-05-01 12:53:00,86.7,43.3,29.90,NW,306,2.0,13.0,22,0.00,,,0.00,328,WeatherHawk,2013-05-01 19:53:00,
2013-05-01 12:56:00,88.2,44.5,29.90,ESE,105,8.0,13.0,22,0.00,,,0.00,319,WeatherHawk,2013-05-01 19:56:00,
2013-05-01 12:58:00,88.0,43.1,29.90,ESE,111,6.0,13.0,21,0.00,,,0.00,315,WeatherHawk,2013-05-01 19:58:00,
2013-05-01 13:00:00,87.8,43.0,29.90,East,90,8.0,11.0,21,0.00,,,0.00,319,WeatherHawk,2013-05-01 20:00:00,
2013-05-01 13:02:00,87.6,44.0,29.90,NE,46,6.0,11.0,22,0.00,,,0.00,329,WeatherHawk,2013-05-01 20:02:00,
2013-05-01 13:03:00,87.6,44.0,29.90,NE,46,6.0,-999.0,22,0.00,,,0.00,329,WeatherHawk,2013-05-01 20:03:00,
2013-05-01 13:05:00,87.1,43.6,29.90,NNW,330,1.0,11.0,22,0.00,,,0.00,324,WeatherHawk,2013-05-01 20:05:00,
2013-05-01 13:07:00,87.1,43.6,29.90,NNE,23,1.0,11.0,22,0.00,,,0.00,323,WeatherHawk,2013-05-01 20:07:00,
2013-05-01 13:08:00,87.1,43.6,29.90,NW,308,4.0,11.0,22,0.00,,,0.00,322,WeatherHawk,2013-05-01 20:08:00,
2013-05-01 13:09:00,87.4,43.9,29.90,NNW,348,9.0,9.0,22,0.00,,,0.00,319,WeatherHawk,2013-05-01 20:09:00,
2013-05-01 13:14:00,88.0,44.3,29.90,NNE,21,3.0,9.0,22,0.00,,,0.00,326,WeatherHawk,2013-05-01 20:14:00,
2013-05-01 13:15:00,88.3,44.6,29.90,East,97,6.0,9.0,22,0.00,,,0.00,322,WeatherHawk,2013-05-01 20:15:00,
2013-05-01 13:16:00,88.3,44.6,29.90,East,83,8.0,9.0,22,0.00,,,0.00,327,WeatherHawk,2013-05-01 20:16:00,
2013-05-01 13:18:00,88.3,44.6,29.90,NE,48,9.0,9.0,22,0.00,,,0.00,329,WeatherHawk,2013-05-01 20:18:00,
2013-05-01 13:20:00,88.2,44.5,29.90,East,86,14.0,14.0,22,0.00,,,0.00,326,WeatherHawk,2013-05-01 20:20:00,
2013-05-01 13:21:00,88.0,44.3,29.90,East,81,9.0,13.0,22,0.00,,,0.00,326,WeatherHawk,2013-05-01 20:21:00,
2013-05-01 13:23:00,88.0,44.3,29.90,ENE,72,10.0,13.0,22,0.00,,,0.00,323,WeatherHawk,2013-05-01 20:23:00,
2013-05-01 13:27:00,88.0,44.3,29.90,NNW,331,7.0,13.0,22,0.00,,,0.00,321,WeatherHawk,2013-05-01 20:27:00,
2013-05-01 13:28:00,88.0,44.3,29.90,NNW,331,7.0,13.0,22,0.00,,,0.00,321,WeatherHawk,2013-05-01 20:28:00,
2013-05-01 13:30:00,88.3,44.6,29.90,North,8,8.0,14.0,22,0.00,,,0.00,323,WeatherHawk,2013-05-01 20:30:00,
2013-05-01 13:33:00,87.6,47.4,29.90,NNE,16,3.0,14.0,25,0.00,,,0.00,316,WeatherHawk,2013-05-01 20:33:00,
2013-05-01 13:34:00,87.8,46.5,29.90,NNE,13,6.0,14.0,24,0.00,,,0.00,319,WeatherHawk,2013-05-01 20:34:00,
2013-05-01 13:38:00,88.3,45.8,29.90,NW,316,7.0,14.0,23,0.00,,,0.00,318,WeatherHawk,2013-05-01 20:38:00,
2013-05-01 13:39:00,88.5,46.0,29.90,West,280,6.0,13.0,23,0.00,,,0.00,319,WeatherHawk,2013-05-01 20:39:00,
2013-05-01 13:40:00,88.3,45.8,29.90,West,280,5.0,13.0,23,0.00,,,0.00,315,WeatherHawk,2013-05-01 20:40:00,
2013-05-01 13:42:00,88.5,48.2,29.89,NNW,333,6.0,13.0,25,0.00,,,0.00,318,WeatherHawk,2013-05-01 20:42:00,
2013-05-01 13:43:00,88.9,47.4,29.89,NNW,336,5.0,13.0,24,0.00,,,0.00,316,WeatherHawk,2013-05-01 20:43:00,
2013-05-01 13:44:00,88.9,47.4,29.89,NNW,332,5.0,13.0,24,0.00,,,0.00,319,WeatherHawk,2013-05-01 20:44:00,
2013-05-01 13:48:00,88.7,46.1,29.89,WSW,255,10.0,13.0,23,0.00,,,0.00,320,WeatherHawk,2013-05-01 20:48:00,
2013-05-01 13:49:00,88.7,46.1,29.89,WSW,255,10.0,13.0,23,0.00,,,0.00,320,WeatherHawk,2013-05-01 20:49:00,
2013-05-01 13:50:00,88.9,46.3,29.89,West,273,6.0,11.0,23,0.00,,,0.00,312,WeatherHawk,2013-05-01 20:50:00,
2013-05-01 13:54:00,89.1,47.5,29.89,NW,310,3.0,11.0,24,0.00,,,0.00,318,WeatherHawk,2013-05-01 20:54:00,
2013-05-01 13:56:00,88.9,46.3,29.89,West,272,8.0,11.0,23,0.00,,,0.00,318,WeatherHawk,2013-05-01 20:56:00,
2013-05-01 13:58:00,89.1,44.0,29.89,SSW,193,6.0,11.0,21,0.00,,,0.00,298,WeatherHawk,2013-05-01 20:58:00,
2013-05-01 13:59:00,89.1,44.0,29.89,SSW,193,6.0,-999.0,21,0.00,,,0.00,298,WeatherHawk,2013-05-01 20:59:00,
2013-05-01 14:02:00,89.2,45.4,29.89,NW,322,6.0,10.0,22,0.00,,,0.00,317,WeatherHawk,2013-05-01 21:02:00,
2013-05-01 14:03:00,89.2,42.9,29.89,North,2,6.0,10.0,20,0.00,,,0.00,314,WeatherHawk,2013-05-01 21:03:00,
2013-05-01 14:04:00,89.2,42.9,29.89,North,2,6.0,10.0,20,0.00,,,0.00,314,WeatherHawk,2013-05-01 21:04:00,
2013-05-01 14:05:00,89.2,42.9,29.89,NNE,13,13.0,13.0,20,0.00,,,0.00,319,WeatherHawk,2013-05-01 21:05:00,
2013-05-01 14:09:00,88.7,43.7,29.89,NNE,23,5.0,-999.0,21,0.00,,,0.00,309,WeatherHawk,2013-05-01 21:09:00,
2013-05-01 14:12:00,89.6,43.2,29.89,NE,45,6.0,14.0,20,0.00,,,0.00,307,WeatherHawk,2013-05-01 21:12:00,
2013-05-01 14:13:00,89.6,43.2,29.89,ENE,78,4.0,14.0,20,0.00,,,0.00,305,WeatherHawk,2013-05-01 21:13:00,
2013-05-01 14:14:00,89.4,43.0,29.89,ENE,77,2.0,-999.0,20,0.00,,,0.00,305,WeatherHawk,2013-05-01 21:14:00,
2013-05-01 14:16:00,89.8,43.3,29.89,East,98,2.0,14.0,20,0.00,,,0.00,303,WeatherHawk,2013-05-01 21:16:00,
2013-05-01 14:17:00,90.0,43.5,29.89,NE,48,6.0,14.0,20,0.00,,,0.00,306,WeatherHawk,2013-05-01 21:17:00,
2013-05-01 14:19:00,90.3,46.3,29.89,NW,310,5.0,14.0,22,0.00,,,0.00,302,WeatherHawk,2013-05-01 21:19:00,
2013-05-01 14:23:00,90.5,46.4,29.89,NW,325,5.0,7.0,22,0.00,,,0.00,301,WeatherHawk,2013-05-01 21:23:00,
2013-05-01 14:26:00,89.4,45.5,29.89,NNW,342,8.0,8.0,22,0.00,,,0.00,299,WeatherHawk,2013-05-01 21:26:00,
2013-05-01 14:28:00,89.2,46.6,29.89,North,6,2.0,7.0,23,0.00,,,0.00,295,WeatherHawk,2013-05-01 21:28:00,
2013-05-01 14:29:00,89.2,46.6,29.89,North,6,2.0,7.0,23,0.00,,,0.00,295,WeatherHawk,2013-05-01 21:29:00,
2013-05-01 14:32:00,89.4,46.7,29.89,West,261,4.0,9.0,23,0.00,,,0.00,296,WeatherHawk,2013-05-01 21:32:00,
2013-05-01 14:34:00,89.6,48.0,29.89,NW,309,5.0,9.0,24,0.00,,,0.00,295,WeatherHawk,2013-05-01 21:34:00,
2013-05-01 14:36:00,90.3,46.3,29.89,WSW,246,4.0,9.0,22,0.00,,,0.00,293,WeatherHawk,2013-05-01 21:36:00,
2013-05-01 14:39:00,90.7,46.6,29.89,WNW,283,6.0,9.0,22,0.00,,,0.00,291,WeatherHawk,2013-05-01 21:39:00,
2013-05-01 14:40:00,90.9,45.5,29.89,West,278,2.0,10.0,21,0.00,,,0.00,290,WeatherHawk,2013-05-01 21:40:00,
2013-05-01 14:41:00,90.9,45.5,29.88,NW,325,8.0,10.0,21,0.00,,,0.00,296,WeatherHawk,2013-05-01 21:41:00,
2013-05-01 14:46:00,90.3,45.0,29.88,North,350,4.0,10.0,21,0.00,,,0.00,287,WeatherHawk,2013-05-01 21:46:00,
2013-05-01 14:47:00,90.5,43.9,29.88,NNW,337,10.0,10.0,20,0.00,,,0.00,289,WeatherHawk,2013-05-01 21:47:00,
2013-05-01 14:49:00,90.5,43.9,29.88,NNW,337,10.0,10.0,20,0.00,,,0.00,289,WeatherHawk,2013-05-01 21:49:00,
2013-05-01 14:50:00,90.3,43.8,29.88,NNW,347,2.0,13.0,20,0.00,,,0.00,284,WeatherHawk,2013-05-01 21:50:00,
2013-05-01 14:52:00,90.5,43.9,29.88,SSW,210,4.0,13.0,20,0.00,,,0.00,281,WeatherHawk,2013-05-01 21:52:00,
2013-05-01 14:54:00,90.7,44.1,29.88,SW,230,4.0,13.0,20,0.00,,,0.00,281,WeatherHawk,2013-05-01 21:54:00,
2013-05-01 14:55:00,90.7,44.1,29.88,SW,233,4.0,13.0,20,0.00,,,0.00,280,WeatherHawk,2013-05-01 21:55:00,
2013-05-01 14:57:00,91.2,43.2,29.88,NW,319,5.0,13.0,19,0.00,,,0.00,280,WeatherHawk,2013-05-01 21:57:00,
2013-05-01 15:01:00,91.8,43.6,29.88,WNW,288,6.0,7.0,19,0.00,,,0.00,279,WeatherHawk,2013-05-01 22:01:00,
2013-05-01 15:02:00,91.9,43.7,29.88,NW,326,3.0,7.0,19,0.00,,,0.00,277,WeatherHawk,2013-05-01 22:02:00,
2013-05-01 15:04:00,92.1,43.9,29.88,NNW,327,4.0,-999.0,19,0.00,,,0.00,276,WeatherHawk,2013-05-01 22:04:00,
2013-05-01 15:05:00,92.1,43.9,29.88,NNW,338,4.0,7.0,19,0.00,,,0.00,276,WeatherHawk,2013-05-01 22:05:00,
2013-05-01 15:06:00,91.9,43.7,29.88,North,349,3.0,7.0,19,0.00,,,0.00,273,WeatherHawk,2013-05-01 22:06:00,
2013-05-01 15:10:00,92.1,45.2,29.88,West,260,3.0,7.0,20,0.00,,,0.00,272,WeatherHawk,2013-05-01 22:10:00,
2013-05-01 15:11:00,92.1,45.2,29.88,WNW,290,2.0,7.0,20,0.00,,,0.00,271,WeatherHawk,2013-05-01 22:11:00,
2013-05-01 15:12:00,92.3,46.7,29.88,WNW,286,4.0,7.0,21,0.00,,,0.00,272,WeatherHawk,2013-05-01 22:12:00,
2013-05-01 15:14:00,92.3,46.7,29.88,WNW,286,4.0,-999.0,21,0.00,,,0.00,272,WeatherHawk,2013-05-01 22:14:00,
2013-05-01 15:15:00,91.9,43.7,29.88,NW,306,6.0,7.0,19,0.00,,,0.00,269,WeatherHawk,2013-05-01 22:15:00,
2013-05-01 15:19:00,91.8,46.2,29.88,WNW,295,6.0,7.0,21,0.00,,,0.00,268,WeatherHawk,2013-05-01 22:19:00,
2013-05-01 15:23:00,91.6,43.5,29.87,WNW,286,7.0,8.0,19,0.00,,,0.00,266,WeatherHawk,2013-05-01 22:23:00,
2013-05-01 15:25:00,91.4,43.3,29.87,NNW,329,7.0,8.0,19,0.00,,,0.00,260,WeatherHawk,2013-05-01 22:25:00,
2013-05-01 15:27:00,91.2,43.2,29.87,NW,321,3.0,8.0,19,0.00,,,0.00,257,WeatherHawk,2013-05-01 22:27:00,
2013-05-01 15:28:00,91.2,43.2,29.87,NW,321,3.0,8.0,19,0.00,,,0.00,257,WeatherHawk,2013-05-01 22:28:00,
2013-05-01 15:29:00,91.6,43.5,29.87,South,181,1.0,0.0,19,0.00,,,0.00,258,WeatherHawk,2013-05-01 22:29:00,
2013-05-01 15:33:00,91.8,42.2,29.87,East,82,2.0,11.0,18,0.00,,,0.00,253,WeatherHawk,2013-05-01 22:33:00,
2013-05-01 15:34:00,91.6,42.0,29.87,NNW,332,5.0,11.0,18,0.00,,,0.00,252,WeatherHawk,2013-05-01 22:34:00,
2013-05-01 15:38:00,92.3,42.6,29.87,NW,316,7.0,11.0,18,0.00,,,0.00,251,WeatherHawk,2013-05-01 22:38:00,
2013-05-01 15:40:00,92.3,42.6,29.87,NNW,328,7.0,9.0,18,0.00,,,0.00,249,WeatherHawk,2013-05-01 22:40:00,
2013-05-01 15:41:00,91.9,42.3,29.87,NNW,340,10.0,10.0,18,0.00,,,0.00,246,WeatherHawk,2013-05-01 22:41:00,
2013-05-01 15:43:00,91.9,42.3,29.87,NNW,327,6.0,9.0,18,0.00,,,0.00,250,WeatherHawk,2013-05-01 22:43:00,
2013-05-01 15:44:00,92.1,41.0,29.87,NNW,335,6.0,9.0,17,0.00,,,0.00,243,WeatherHawk,2013-05-01 22:44:00,
2013-05-01 15:48:00,92.3,42.6,29.87,NE,43,6.0,9.0,18,0.00,,,0.00,243,WeatherHawk,2013-05-01 22:48:00,
2013-05-01 15:51:00,91.9,42.3,29.87,North,359,3.0,11.0,18,0.00,,,0.00,238,WeatherHawk,2013-05-01 22:51:00,
2013-05-01 15:52:00,91.9,42.3,29.87,NNE,32,6.0,11.0,18,0.00,,,0.00,237,WeatherHawk,2013-05-01 22:52:00,
2013-05-01 15:54:00,91.6,40.6,29.87,NE,40,4.0,11.0,17,0.00,,,0.00,234,WeatherHawk,2013-05-01 22:54:00,
2013-05-01 15:57:00,91.6,40.6,29.87,South,173,1.0,11.0,17,0.00,,,0.00,228,WeatherHawk,2013-05-01 22:57:00,
2013-05-01 15:58:00,91.8,40.7,29.87,NNW,333,0.0,11.0,17,0.00,,,0.00,230,WeatherHawk,2013-05-01 22:58:00,
2013-05-01 16:00:00,92.5,45.5,29.87,WNW,301,5.0,10.0,20,0.00,,,0.00,231,WeatherHawk,2013-05-01 23:00:00,
2013-05-01 16:03:00,92.1,43.9,29.87,WNW,297,9.0,10.0,19,0.00,,,0.00,231,WeatherHawk,2013-05-01 23:03:00,
2013-05-01 16:04:00,91.9,43.7,29.87,WNW,288,8.0,10.0,19,0.00,,,0.00,228,WeatherHawk,2013-05-01 23:04:00,
2013-05-01 16:05:00,92.1,43.9,29.87,West,277,8.0,10.0,19,0.00,,,0.00,228,WeatherHawk,2013-05-01 23:05:00,
2013-05-01 16:08:00,91.9,45.1,29.87,West,277,6.0,10.0,20,0.00,,,0.00,222,WeatherHawk,2013-05-01 23:08:00,
2013-05-01 16:09:00,92.1,43.9,29.87,WSW,243,6.0,0.0,19,0.00,,,0.00,222,WeatherHawk,2013-05-01 23:09:00,
2013-05-01 16:11:00,92.3,42.6,29.87,SW,220,3.0,9.0,18,0.00,,,0.00,219,WeatherHawk,2013-05-01 23:11:00,
2013-05-01 16:13:00,92.5,42.8,29.87,West,261,6.0,9.0,18,0.00,,,0.00,217,WeatherHawk,2013-05-01 23:13:00,
2013-05-01 16:16:00,92.7,41.4,29.87,NNW,332,6.0,9.0,17,0.00,,,0.00,214,WeatherHawk,2013-05-01 23:16:00,
2013-05-01 16:18:00,92.3,41.1,29.87,WSW,240,3.0,9.0,17,0.00,,,0.00,212,WeatherHawk,2013-05-01 23:18:00,
2013-05-01 16:20:00,92.3,39.6,29.87,WNW,290,5.0,6.0,16,0.00,,,0.00,210,WeatherHawk,2013-05-01 23:20:00,
2013-05-01 16:23:00,92.3,42.6,29.87,WNW,288,7.0,7.0,18,0.00,,,0.00,210,WeatherHawk,2013-05-01 23:23:00,
2013-05-01 16:28:00,91.9,42.3,29.87,NW,312,7.0,7.0,18,0.00,,,0.00,202,WeatherHawk,2013-05-01 23:28:00,
2013-05-01 16:30:00,92.1,43.9,29.87,WNW,284,6.0,9.0,19,0.00,,,0.00,201,WeatherHawk,2013-05-01 23:30:00,
2013-05-01 16:32:00,92.3,41.1,29.87,West,275,6.0,9.0,17,0.00,,,0.00,197,WeatherHawk,2013-05-01 23:32:00,
2013-05-01 16:33:00,92.1,43.9,29.87,WNW,297,7.0,9.0,19,0.00,,,0.00,197,WeatherHawk,2013-05-01 23:33:00,
2013-05-01 16:35:00,92.1,43.9,29.87,WNW,284,6.0,9.0,19,0.00,,,0.00,195,WeatherHawk,2013-05-01 23:35:00,
2013-05-01 16:36:00,92.1,43.9,29.87,West,271,7.0,9.0,19,0.00,,,0.00,195,WeatherHawk,2013-05-01 23:36:00,
2013-05-01 16:38:00,92.3,41.1,29.87,West,274,7.0,9.0,17,0.00,,,0.00,191,WeatherHawk,2013-05-01 23:38:00,
2013-05-01 16:40:00,92.1,42.5,29.87,WSW,257,6.0,9.0,18,0.00,,,0.00,189,WeatherHawk,2013-05-01 23:40:00,
2013-05-01 16:43:00,92.5,41.3,29.87,WSW,257,6.0,-999.0,17,0.00,,,0.00,185,WeatherHawk,2013-05-01 23:43:00,
2013-05-01 16:44:00,92.3,41.1,29.87,West,264,6.0,9.0,17,0.00,,,0.00,186,WeatherHawk,2013-05-01 23:44:00,
2013-05-01 16:45:00,92.3,41.1,29.87,WNW,282,5.0,9.0,17,0.00,,,0.00,183,WeatherHawk,2013-05-01 23:45:00,
2013-05-01 16:46:00,92.3,41.1,29.87,West,277,2.0,9.0,17,0.00,,,0.00,180,WeatherHawk,2013-05-01 23:46:00,
2013-05-01 16:48:00,92.3,41.1,29.87,WSW,251,2.0,9.0,17,0.00,,,0.00,179,WeatherHawk,2013-05-01 23:48:00,
2013-05-01 16:50:00,92.8,41.6,29.87,West,266,4.0,7.0,17,0.00,,,0.00,176,WeatherHawk,2013-05-01 23:50:00,
2013-05-01 16:53:00,92.8,41.6,29.87,WNW,289,6.0,7.0,17,0.00,,,0.00,173,WeatherHawk,2013-05-01 23:53:00,
2013-05-01 16:56:00,92.5,41.3,29.87,WNW,285,5.0,7.0,17,0.00,,,0.00,169,WeatherHawk,2013-05-01 23:56:00,
2013-05-01 16:58:00,92.5,41.3,29.87,West,275,5.0,7.0,17,0.00,,,0.00,167,WeatherHawk,2013-05-01 23:58:00,
2013-05-01 16:59:00,92.7,44.3,29.87,WNW,295,5.0,8.0,19,0.00,,,0.00,167,WeatherHawk,2013-05-01 23:59:00,
2013-05-01 17:03:00,92.5,42.8,29.87,West,271,3.0,8.0,18,0.00,,,0.00,161,WeatherHawk,2013-05-02 00:03:00,
2013-05-01 17:04:00,92.5,41.3,29.87,West,278,4.0,8.0,17,0.00,,,0.00,158,WeatherHawk,2013-05-02 00:04:00,
2013-05-01 17:06:00,92.7,42.9,29.87,WSW,255,4.0,8.0,18,0.00,,,0.00,158,WeatherHawk,2013-05-02 00:06:00,
2013-05-01 17:08:00,92.8,41.6,29.87,West,259,5.0,8.0,17,0.00,,,0.00,156,WeatherHawk,2013-05-02 00:08:00,
2013-05-01 17:13:00,93.0,40.2,29.87,WSW,258,6.0,7.0,16,0.00,,,0.00,147,WeatherHawk,2013-05-02 00:13:00,
2013-05-01 17:15:00,92.8,40.0,29.87,West,273,5.0,7.0,16,0.00,,,0.00,145,WeatherHawk,2013-05-02 00:15:00,
2013-05-01 17:17:00,92.8,40.0,29.87,West,279,4.0,7.0,16,0.00,,,0.00,144,WeatherHawk,2013-05-02 00:17:00,
2013-05-01 17:19:00,92.8,40.0,29.87,West,271,6.0,8.0,16,0.00,,,0.00,140,WeatherHawk,2013-05-02 00:19:00,
2013-05-01 17:21:00,92.5,41.3,29.87,West,275,3.0,8.0,17,0.00,,,0.00,138,WeatherHawk,2013-05-02 00:21:00,
2013-05-01 17:23:00,92.3,41.1,29.87,WNW,299,5.0,8.0,17,0.00,,,0.00,135,WeatherHawk,2013-05-02 00:23:00,
2013-05-01 17:27:00,92.7,42.9,29.87,West,273,4.0,8.0,18,0.00,,,0.00,130,WeatherHawk,2013-05-02 00:27:00,
2013-05-01 17:28:00,92.7,44.3,29.87,West,264,4.0,8.0,19,0.00,,,0.00,128,WeatherHawk,2013-05-02 00:28:00,
2013-05-01 17:31:00,92.5,42.8,29.87,West,276,6.0,8.0,18,0.00,,,0.00,124,WeatherHawk,2013-05-02 00:31:00,
2013-05-01 17:33:00,92.3,42.6,29.87,WSW,253,5.0,8.0,18,0.00,,,0.00,122,WeatherHawk,2013-05-02 00:33:00,
2013-05-01 17:35:00,92.5,45.5,29.87,West,268,5.0,8.0,20,0.00,,,0.00,120,WeatherHawk,2013-05-02 00:35:00,
2013-05-01 17:36:00,92.5,46.8,29.87,WNW,287,5.0,8.0,21,0.00,,,0.00,118,WeatherHawk,2013-05-02 00:36:00,
2013-05-01 17:37:00,92.5,44.2,29.87,West,275,6.0,8.0,19,0.00,,,0.00,118,WeatherHawk,2013-05-02 00:37:00,
2013-05-01 17:38:00,92.5,44.2,29.87,West,264,5.0,-999.0,19,0.00,,,0.00,117,WeatherHawk,2013-05-02 00:38:00,
2013-05-01 17:42:00,92.3,45.4,29.87,West,278,5.0,7.0,20,0.00,,,0.00,111,WeatherHawk,2013-05-02 00:42:00,
2013-05-01 17:43:00,92.3,45.4,29.87,West,278,5.0,7.0,20,0.00,,,0.00,111,WeatherHawk,2013-05-02 00:43:00,
2013-05-01 17:47:00,92.1,42.5,29.87,West,270,6.0,7.0,18,0.00,,,0.00,104,WeatherHawk,2013-05-02 00:47:00,
2013-05-01 17:48:00,92.1,43.9,29.87,West,268,5.0,-999.0,19,0.00,,,0.00,101,WeatherHawk,2013-05-02 00:48:00,
2013-05-01 17:49:00,92.1,43.9,29.87,WSW,258,8.0,8.0,19,0.00,,,0.00,98,WeatherHawk,2013-05-02 00:49:00,
2013-05-01 17:51:00,91.9,43.7,29.86,WSW,241,5.0,8.0,19,0.00,,,0.00,98,WeatherHawk,2013-05-02 00:51:00,
2013-05-01 17:53:00,91.9,42.3,29.87,West,277,6.0,-999.0,18,0.00,,,0.00,95,WeatherHawk,2013-05-02 00:53:00,
2013-05-01 17:55:00,91.9,42.3,29.86,West,268,5.0,8.0,18,0.00,,,0.00,89,WeatherHawk,2013-05-02 00:55:00,
2013-05-01 17:56:00,91.9,43.7,29.86,SW,234,6.0,8.0,19,0.00,,,0.00,91,WeatherHawk,2013-05-02 00:56:00,
2013-05-01 17:58:00,92.1,43.9,29.86,WSW,246,8.0,8.0,19,0.00,,,0.00,88,WeatherHawk,2013-05-02 00:58:00,
2013-05-01 18:01:00,92.1,45.2,29.86,WSW,246,6.0,8.0,20,0.00,,,0.00,84,WeatherHawk,2013-05-02 01:01:00,
2013-05-01 18:03:00,92.1,45.2,29.86,WSW,249,4.0,8.0,20,0.00,,,0.00,81,WeatherHawk,2013-05-02 01:03:00,
2013-05-01 18:05:00,91.9,45.1,29.86,SW,236,7.0,8.0,20,0.00,,,0.00,79,WeatherHawk,2013-05-02 01:05:00,
2013-05-01 18:06:00,91.9,45.1,29.86,WSW,253,6.0,8.0,20,0.00,,,0.00,76,WeatherHawk,2013-05-02 01:06:00,
2013-05-01 18:08:00,92.1,46.5,29.86,West,264,6.0,8.0,21,0.00,,,0.00,75,WeatherHawk,2013-05-02 01:08:00,
2013-05-01 18:10:00,91.9,43.7,29.87,West,268,6.0,8.0,19,0.00,,,0.00,72,WeatherHawk,2013-05-02 01:10:00,
2013-05-01 18:11:00,91.9,43.7,29.87,West,267,7.0,8.0,19,0.00,,,0.00,72,WeatherHawk,2013-05-02 01:11:00,
2013-05-01 18:12:00,91.9,43.7,29.87,West,261,6.0,8.0,19,0.00,,,0.00,69,WeatherHawk,2013-05-02 01:12:00,
2013-05-01 18:13:00,91.9,45.1,29.87,West,266,5.0,8.0,20,0.00,,,0.00,62,WeatherHawk,2013-05-02 01:13:00,
2013-05-01 18:16:00,91.6,44.8,29.87,West,271,6.0,8.0,20,0.00,,,0.00,65,WeatherHawk,2013-05-02 01:16:00,
2013-05-01 18:18:00,91.4,44.6,29.87,West,278,5.0,8.0,20,0.00,,,0.00,62,WeatherHawk,2013-05-02 01:18:00,
2013-05-01 18:19:00,91.4,44.6,29.87,West,274,5.0,7.0,20,0.00,,,0.00,59,WeatherHawk,2013-05-02 01:19:00,
2013-05-01 18:20:00,91.4,43.3,29.87,West,265,6.0,7.0,19,0.00,,,0.00,59,WeatherHawk,2013-05-02 01:20:00,
2013-05-01 18:22:00,91.4,44.6,29.87,WNW,282,5.0,7.0,20,0.00,,,0.00,57,WeatherHawk,2013-05-02 01:22:00,
2013-05-01 18:23:00,91.4,44.6,29.87,WNW,282,5.0,-999.0,20,0.00,,,0.00,57,WeatherHawk,2013-05-02 01:23:00,
2013-05-01 18:24:00,91.4,44.6,29.87,West,265,6.0,7.0,20,0.00,,,0.00,53,WeatherHawk,2013-05-02 01:24:00,
2013-05-01 18:27:00,91.4,45.9,29.87,West,259,5.0,7.0,21,0.00,,,0.00,50,WeatherHawk,2013-05-02 01:27:00,
2013-05-01 18:28:00,91.2,47.0,29.87,West,277,4.0,7.0,22,0.00,,,0.00,49,WeatherHawk,2013-05-02 01:28:00,
2013-05-01 18:33:00,91.0,46.9,29.87,West,269,6.0,6.0,22,0.00,,,0.00,43,WeatherHawk,2013-05-02 01:33:00,
2013-05-01 18:34:00,91.0,45.6,29.87,West,259,5.0,6.0,21,0.00,,,0.00,42,WeatherHawk,2013-05-02 01:34:00,
2013-05-01 18:38:00,90.9,46.7,29.87,WSW,255,5.0,6.0,22,0.00,,,0.00,37,WeatherHawk,2013-05-02 01:38:00,
2013-05-01 18:39:00,90.9,45.5,29.87,WSW,257,6.0,6.0,21,0.00,,,0.00,36,WeatherHawk,2013-05-02 01:39:00,
2013-05-01 18:40:00,90.9,45.5,29.87,West,265,5.0,6.0,21,0.00,,,0.00,34,WeatherHawk,2013-05-02 01:40:00,
2013-05-01 18:42:00,90.7,46.6,29.87,West,267,4.0,6.0,22,0.00,,,0.00,32,WeatherHawk,2013-05-02 01:42:00,
2013-05-01 18:43:00,90.7,46.6,29.87,West,264,5.0,6.0,22,0.00,,,0.00,31,WeatherHawk,2013-05-02 01:43:00,
2013-05-01 18:47:00,90.5,43.9,29.87,WSW,239,5.0,6.0,20,0.00,,,0.00,26,WeatherHawk,2013-05-02 01:47:00,
2013-05-01 18:48:00,90.7,44.1,29.87,WSW,244,6.0,6.0,20,0.00,,,0.00,26,WeatherHawk,2013-05-02 01:48:00,
2013-05-01 18:50:00,90.7,45.3,29.87,WSW,251,4.0,6.0,21,0.00,,,0.00,23,WeatherHawk,2013-05-02 01:50:00,
2013-05-01 18:51:00,90.7,44.1,29.87,WSW,251,5.0,6.0,20,0.00,,,0.00,23,WeatherHawk,2013-05-02 01:51:00,
2013-05-01 18:53:00,90.7,44.1,29.87,WSW,252,4.0,-999.0,20,0.00,,,0.00,21,WeatherHawk,2013-05-02 01:53:00,
2013-05-01 18:57:00,90.3,46.3,29.88,WSW,243,4.0,6.0,22,0.00,,,0.00,17,WeatherHawk,2013-05-02 01:57:00,
2013-05-01 18:58:00,90.3,46.3,29.88,WSW,243,4.0,6.0,22,0.00,,,0.00,17,WeatherHawk,2013-05-02 01:58:00,
2013-05-01 19:02:00,89.2,48.8,29.88,WSW,246,4.0,6.0,25,0.00,,,0.00,11,WeatherHawk,2013-05-02 02:02:00,
2013-05-01 19:03:00,89.2,48.8,29.88,WSW,242,4.0,6.0,25,0.00,,,0.00,11,WeatherHawk,2013-05-02 02:03:00,
2013-05-01 19:04:00,89.1,47.5,29.88,WSW,240,5.0,6.0,24,0.00,,,0.00,11,WeatherHawk,2013-05-02 02:04:00,
2013-05-01 19:06:00,88.9,48.5,29.88,WSW,254,5.0,6.0,25,0.00,,,0.00,9,WeatherHawk,2013-05-02 02:06:00,
2013-05-01 19:07:00,88.7,48.3,29.88,West,260,4.0,6.0,25,0.00,,,0.00,9,WeatherHawk,2013-05-02 02:07:00,
2013-05-01 19:09:00,88.5,48.2,29.88,West,267,2.0,6.0,25,0.00,,,0.00,6,WeatherHawk,2013-05-02 02:09:00,
2013-05-01 19:11:00,88.5,47.1,29.88,WSW,251,2.0,6.0,24,0.00,,,0.00,5,WeatherHawk,2013-05-02 02:11:00,
2013-05-01 19:12:00,88.3,46.9,29.88,West,264,2.0,6.0,24,0.00,,,0.00,6,WeatherHawk,2013-05-02 02:12:00,
2013-05-01 19:13:00,88.3,48.0,29.88,West,263,2.0,6.0,25,0.00,,,0.00,5,WeatherHawk,2013-05-02 02:13:00,
2013-05-01 19:18:00,88.2,47.9,29.88,West,274,4.0,6.0,25,0.00,,,0.00,0,WeatherHawk,2013-05-02 02:18:00,
2013-05-01 19:21:00,87.8,48.6,29.88,West,281,3.0,4.0,26,0.00,,,0.00,3,WeatherHawk,2013-05-02 02:21:00,
2013-05-01 19:23:00,87.6,50.4,29.89,WNW,290,3.0,4.0,28,0.00,,,0.00,1,WeatherHawk,2013-05-02 02:23:00,
2013-05-01 19:25:00,87.1,50.0,29.89,NW,306,4.0,4.0,28,0.00,,,0.00,1,WeatherHawk,2013-05-02 02:25:00,
2013-05-01 19:28:00,86.7,48.7,29.89,West,280,2.0,4.0,27,0.00,,,0.00,0,WeatherHawk,2013-05-02 02:28:00,
2013-05-01 19:29:00,86.5,49.5,29.89,West,267,2.0,4.0,28,0.00,,,0.00,1,WeatherHawk,2013-05-02 02:29:00,
2013-05-01 19:30:00,86.5,49.5,29.89,WSW,241,3.0,4.0,28,0.00,,,0.00,0,WeatherHawk,2013-05-02 02:30:00,
2013-05-01 19:34:00,86.7,45.6,29.89,SW,236,3.0,4.0,24,0.00,,,0.00,0,WeatherHawk,2013-05-02 02:34:00,
2013-05-01 19:35:00,86.9,44.6,29.89,WSW,247,3.0,4.0,23,0.00,,,0.00,0,WeatherHawk,2013-05-02 02:35:00,
2013-05-01 19:36:00,87.1,47.0,29.89,WNW,284,3.0,4.0,25,0.00,,,0.00,0,WeatherHawk,2013-05-02 02:36:00,
2013-05-01 19:38:00,87.1,45.9,29.89,WSW,245,4.0,4.0,24,0.00,,,0.00,0,WeatherHawk,2013-05-02 02:38:00,
2013-05-01 19:43:00,87.1,44.8,29.89,WNW,296,5.0,6.0,23,0.00,,,0.00,0,WeatherHawk,2013-05-02 02:43:00,
2013-05-01 19:44:00,86.9,44.6,29.89,West,280,2.0,6.0,23,0.00,,,0.00,0,WeatherHawk,2013-05-02 02:44:00,
2013-05-01 19:48:00,86.9,36.8,29.89,NW,321,5.0,-999.0,17,0.00,,,0.00,0,WeatherHawk,2013-05-02 02:48:00,
2013-05-01 19:49:00,87.1,43.6,29.89,West,261,5.0,6.0,22,0.00,,,0.00,0,WeatherHawk,2013-05-02 02:49:00,
2013-05-01 19:51:00,87.1,39.8,29.89,West,277,6.0,6.0,19,0.00,,,0.00,0,WeatherHawk,2013-05-02 02:51:00,
2013-05-01 19:53:00,86.9,41.0,29.89,WNW,303,5.0,6.0,20,0.00,,,0.00,0,WeatherHawk,2013-05-02 02:53:00,
2013-05-01 19:58:00,85.8,40.1,29.89,WNW,283,3.0,6.0,20,0.00,,,0.00,0,WeatherHawk,2013-05-02 02:58:00,
2013-05-01 20:00:00,85.5,38.5,29.90,NW,314,3.0,6.0,19,0.00,,,0.00,0,WeatherHawk,2013-05-02 03:00:00,
2013-05-01 20:02:00,85.5,32.5,29.90,NW,322,6.0,6.0,15,0.00,,,0.00,0,WeatherHawk,2013-05-02 03:02:00,
2013-05-01 20:03:00,85.5,32.5,29.90,NW,322,6.0,6.0,15,0.00,,,0.00,0,WeatherHawk,2013-05-02 03:03:00,
2013-05-01 20:04:00,85.6,32.7,29.90,NW,325,5.0,6.0,15,0.00,,,0.00,0,WeatherHawk,2013-05-02 03:04:00,
2013-05-01 20:07:00,85.6,31.0,29.90,NNW,329,5.0,6.0,14,0.00,,,0.00,0,WeatherHawk,2013-05-02 03:07:00,
2013-05-01 20:08:00,85.6,31.0,29.90,NW,325,4.0,6.0,14,0.00,,,0.00,0,WeatherHawk,2013-05-02 03:08:00,
2013-05-01 20:09:00,85.5,30.8,29.90,NNW,334,5.0,7.0,14,0.00,,,0.00,0,WeatherHawk,2013-05-02 03:09:00,
2013-05-01 20:11:00,85.3,32.4,29.90,NNW,332,4.0,7.0,15,0.00,,,0.00,0,WeatherHawk,2013-05-02 03:11:00,
2013-05-01 20:12:00,85.1,32.2,29.90,NNW,338,4.0,7.0,15,0.00,,,0.00,0,WeatherHawk,2013-05-02 03:12:00,
2013-05-01 20:16:00,84.2,31.5,29.90,NNW,346,4.0,7.0,15,0.00,,,0.00,0,WeatherHawk,2013-05-02 03:16:00,
2013-05-01 20:17:00,84.0,31.4,29.90,NNW,339,3.0,7.0,15,0.00,,,0.00,1,WeatherHawk,2013-05-02 03:17:00,
2013-05-01 20:18:00,84.0,31.4,29.90,NNW,339,3.0,7.0,15,0.00,,,0.00,1,WeatherHawk,2013-05-02 03:18:00,
2013-05-01 20:21:00,83.5,29.3,29.90,NNW,336,5.0,6.0,14,0.00,,,0.00,0,WeatherHawk,2013-05-02 03:21:00,
2013-05-01 20:22:00,83.5,27.5,29.91,NNW,342,6.0,6.0,13,0.00,,,0.00,0,WeatherHawk,2013-05-02 03:22:00,
2013-05-01 20:23:00,83.5,29.3,29.91,NNW,345,6.0,6.0,14,0.00,,,0.00,0,WeatherHawk,2013-05-02 03:23:00,
2013-05-01 20:24:00,83.5,27.5,29.91,NNW,347,6.0,6.0,13,0.00,,,0.00,0,WeatherHawk,2013-05-02 03:24:00,
2013-05-01 20:27:00,83.5,27.5,29.91,NNW,344,6.0,6.0,13,0.00,,,0.00,0,WeatherHawk,2013-05-02 03:27:00,
2013-05-01 20:28:00,83.5,27.5,29.91,NNW,346,7.0,7.0,13,0.00,,,0.00,0,WeatherHawk,2013-05-02 03:28:00,
2013-05-01 20:32:00,83.3,27.3,29.91,NNW,348,6.0,7.0,13,0.00,,,0.00,0,WeatherHawk,2013-05-02 03:32:00,
2013-05-01 20:33:00,83.3,27.3,29.91,NNW,343,7.0,7.0,13,0.00,,,0.00,0,WeatherHawk,2013-05-02 03:33:00,
2013-05-01 20:34:00,83.1,27.2,29.91,NNW,344,6.0,7.0,13,0.00,,,0.00,0,WeatherHawk,2013-05-02 03:34:00,
2013-05-01 20:37:00,82.9,27.0,29.91,NNW,347,5.0,7.0,13,0.00,,,0.00,0,WeatherHawk,2013-05-02 03:37:00,
2013-05-01 20:39:00,82.8,26.9,29.91,NNW,346,4.0,7.0,13,0.00,,,0.00,0,WeatherHawk,2013-05-02 03:39:00,
2013-05-01 20:41:00,82.8,25.0,29.91,NNW,341,5.0,7.0,12,0.00,,,0.00,0,WeatherHawk,2013-05-02 03:41:00,
2013-05-01 20:43:00,82.6,24.8,29.91,NNW,338,5.0,7.0,12,0.00,,,0.00,0,WeatherHawk,2013-05-02 03:43:00,
2013-05-01 20:47:00,82.4,24.7,29.91,NNW,341,6.0,7.0,12,0.00,,,0.00,0,WeatherHawk,2013-05-02 03:47:00,
2013-05-01 20:48:00,82.4,24.7,29.91,NNW,345,7.0,-999.0,12,0.00,,,0.00,0,WeatherHawk,2013-05-02 03:48:00,
2013-05-01 20:51:00,82.4,24.7,29.91,North,352,5.0,7.0,12,0.00,,,0.00,0,WeatherHawk,2013-05-02 03:51:00,
2013-05-01 20:52:00,82.4,24.7,29.91,North,350,5.0,7.0,12,0.00,,,0.00,0,WeatherHawk,2013-05-02 03:52:00,
2013-05-01 20:53:00,82.4,24.7,29.91,North,350,5.0,7.0,12,0.00,,,0.00,0,WeatherHawk,2013-05-02 03:53:00,
2013-05-01 20:58:00,82.4,24.7,29.92,North,353,7.0,7.0,12,0.00,,,0.00,0,WeatherHawk,2013-05-02 03:58:00,
2013-05-01 20:59:00,82.4,24.7,29.92,North,356,8.0,8.0,12,0.00,,,0.00,0,WeatherHawk,2013-05-02 03:59:00,
2013-05-01 21:02:00,82.4,24.7,29.92,NNW,348,6.0,7.0,12,0.00,,,0.00,0,WeatherHawk,2013-05-02 04:02:00,
2013-05-01 21:03:00,82.4,24.7,29.92,North,350,7.0,7.0,12,0.00,,,0.00,0,WeatherHawk,2013-05-02 04:03:00,
2013-05-01 21:06:00,82.8,22.9,29.92,North,350,8.0,8.0,11,0.00,,,0.00,0,WeatherHawk,2013-05-02 04:06:00,
2013-05-01 21:07:00,83.1,18.4,29.92,NNW,348,8.0,8.0,9,0.00,,,0.00,0,WeatherHawk,2013-05-02 04:07:00,
2013-05-01 21:08:00,83.1,18.4,29.92,NNW,348,8.0,8.0,9,0.00,,,0.00,0,WeatherHawk,2013-05-02 04:08:00,
2013-05-01 21:10:00,83.5,18.7,29.92,NNW,346,8.0,9.0,9,0.00,,,0.00,0,WeatherHawk,2013-05-02 04:10:00,
2013-05-01 21:13:00,83.7,18.9,29.92,NNW,346,7.0,9.0,9,0.00,,,0.00,0,WeatherHawk,2013-05-02 04:13:00,
2013-05-01 21:14:00,83.7,18.9,29.92,North,350,9.0,9.0,9,0.00,,,0.00,1,WeatherHawk,2013-05-02 04:14:00,
2013-05-01 21:15:00,83.8,19.0,29.93,North,353,8.0,9.0,9,0.00,,,0.00,0,WeatherHawk,2013-05-02 04:15:00,
2013-05-01 21:18:00,83.7,18.9,29.93,North,351,8.0,9.0,9,0.00,,,0.00,0,WeatherHawk,2013-05-02 04:18:00,
2013-05-01 21:22:00,83.1,20.9,29.93,North,354,8.0,10.0,10,0.00,,,0.00,0,WeatherHawk,2013-05-02 04:22:00,
2013-05-01 21:23:00,83.1,20.9,29.93,North,354,8.0,-999.0,10,0.00,,,0.00,0,WeatherHawk,2013-05-02 04:23:00,
2013-05-01 21:25:00,82.8,20.6,29.93,North,356,9.0,10.0,10,0.00,,,0.00,0,WeatherHawk,2013-05-02 04:25:00,
2013-05-01 21:26:00,82.8,20.6,29.93,North,350,8.0,10.0,10,0.00,,,0.00,0,WeatherHawk,2013-05-02 04:26:00,
2013-05-01 21:28:00,82.6,20.5,29.93,North,352,8.0,10.0,10,0.00,,,0.00,1,WeatherHawk,2013-05-02 04:28:00,
2013-05-01 21:30:00,82.4,22.6,29.94,North,351,9.0,9.0,11,0.00,,,0.00,0,WeatherHawk,2013-05-02 04:30:00,
2013-05-01 21:32:00,82.4,20.4,29.94,North,359,9.0,9.0,10,0.00,,,0.00,0,WeatherHawk,2013-05-02 04:32:00,
2013-05-01 21:33:00,82.4,20.4,29.94,North,359,9.0,9.0,10,0.00,,,0.00,0,WeatherHawk,2013-05-02 04:33:00,
2013-05-01 21:34:00,82.4,20.4,29.94,North,359,9.0,9.0,10,0.00,,,0.00,0,WeatherHawk,2013-05-02 04:34:00,
2013-05-01 21:37:00,82.8,18.2,29.94,North,357,9.0,9.0,9,0.00,,,0.00,0,WeatherHawk,2013-05-02 04:37:00,
2013-05-01 21:38:00,82.8,18.2,29.94,North,352,10.0,11.0,9,0.00,,,0.00,0,WeatherHawk,2013-05-02 04:38:00,
2013-05-01 21:39:00,82.8,18.2,29.94,North,352,10.0,-999.0,9,0.00,,,0.00,0,WeatherHawk,2013-05-02 04:39:00,
2013-05-01 21:44:00,82.2,17.8,29.94,North,356,9.0,11.0,9,0.00,,,0.00,0,WeatherHawk,2013-05-02 04:44:00,
2013-05-01 21:47:00,81.9,20.0,29.94,North,351,10.0,11.0,10,0.00,,,0.00,0,WeatherHawk,2013-05-02 04:47:00,
2013-05-01 21:49:00,81.7,19.8,29.94,North,354,10.0,11.0,10,0.00,,,0.00,0,WeatherHawk,2013-05-02 04:49:00,
2013-05-01 21:51:00,81.3,17.1,29.94,North,356,11.0,11.0,9,0.00,,,0.00,0,WeatherHawk,2013-05-02 04:51:00,
2013-05-01 21:54:00,81.1,17.0,29.94,North,356,9.0,-999.0,9,0.00,,,0.00,0,WeatherHawk,2013-05-02 04:54:00,
2013-05-01 21:55:00,81.1,17.0,29.94,North,357,12.0,12.0,9,0.00,,,0.00,0,WeatherHawk,2013-05-02 04:55:00,
2013-05-01 21:59:00,81.1,17.0,29.94,North,358,9.0,11.0,9,0.00,,,0.00,0,WeatherHawk,2013-05-02 04:59:00,
2013-05-01 22:01:00,81.0,16.8,29.95,North,2,10.0,13.0,9,0.00,,,0.00,0,WeatherHawk,2013-05-02 05:01:00,
2013-05-01 22:04:00,81.1,17.0,29.95,North,356,11.0,13.0,9,0.00,,,0.00,0,WeatherHawk,2013-05-02 05:04:00,
2013-05-01 22:06:00,81.1,17.0,29.95,North,355,10.0,13.0,9,0.00,,,0.00,0,WeatherHawk,2013-05-02 05:06:00,
2013-05-01 22:09:00,81.1,14.3,29.95,North,0,9.0,13.0,8,0.00,,,0.00,0,WeatherHawk,2013-05-02 05:09:00,
2013-05-01 22:12:00,81.0,16.8,29.95,North,352,9.0,11.0,9,0.00,,,0.00,1,WeatherHawk,2013-05-02 05:12:00,
2013-05-01 22:13:00,80.8,16.7,29.95,North,353,10.0,11.0,9,0.00,,,0.00,0,WeatherHawk,2013-05-02 05:13:00,
2013-05-01 22:14:00,80.8,16.7,29.95,North,353,10.0,-999.0,9,0.00,,,0.00,0,WeatherHawk,2013-05-02 05:14:00,
2013-05-01 22:15:00,80.8,16.7,29.95,North,359,10.0,11.0,9,0.00,,,0.00,0,WeatherHawk,2013-05-02 05:15:00,
2013-05-01 22:16:00,80.8,16.7,29.95,North,355,10.0,11.0,9,0.00,,,0.00,0,WeatherHawk,2013-05-02 05:16:00,
2013-05-01 22:19:00,80.8,16.7,29.95,North,356,10.0,-999.0,9,0.00,,,0.00,0,WeatherHawk,2013-05-02 05:19:00,
2013-05-01 22:21:00,80.4,13.7,29.95,North,0,12.0,12.0,8,0.00,,,0.00,0,WeatherHawk,2013-05-02 05:21:00,
2013-05-01 22:24:00,80.6,13.9,29.95,North,1,8.0,-999.0,8,0.00,,,0.00,0,WeatherHawk,2013-05-02 05:24:00,
2013-05-01 22:26:00,80.6,13.9,29.95,North,4,13.0,13.0,8,0.00,,,0.00,0,WeatherHawk,2013-05-02 05:26:00,
2013-05-01 22:28:00,80.6,13.9,29.95,North,3,11.0,11.0,8,0.00,,,0.00,0,WeatherHawk,2013-05-02 05:28:00,
2013-05-01 22:32:00,80.4,13.7,29.96,North,6,12.0,13.0,8,0.00,,,0.00,0,WeatherHawk,2013-05-02 05:32:00,
2013-05-01 22:33:00,80.6,13.9,29.96,North,0,11.0,13.0,8,0.00,,,0.00,0,WeatherHawk,2013-05-02 05:33:00,
2013-05-01 22:34:00,80.6,13.9,29.96,North,352,7.0,13.0,8,0.00,,,0.00,0,WeatherHawk,2013-05-02 05:34:00,
2013-05-01 22:35:00,80.4,13.7,29.96,North,354,9.0,13.0,8,0.00,,,0.00,0,WeatherHawk,2013-05-02 05:35:00,
2013-05-01 22:39:00,79.9,16.0,29.96,North,356,10.0,13.0,9,0.00,,,0.00,0,WeatherHawk,2013-05-02 05:39:00,
2013-05-01 22:40:00,79.7,13.2,29.96,North,359,9.0,16.0,8,0.00,,,0.00,0,WeatherHawk,2013-05-02 05:40:00,
2013-05-01 22:44:00,79.7,15.9,29.96,North,351,9.0,16.0,9,0.00,,,0.00,0,WeatherHawk,2013-05-02 05:44:00,
2013-05-01 22:48:00,79.2,15.5,29.96,NNW,338,7.0,16.0,9,0.00,,,0.00,0,WeatherHawk,2013-05-02 05:48:00,
2013-05-01 22:49:00,79.2,15.5,29.96,NNW,338,7.0,16.0,9,0.00,,,0.00,0,WeatherHawk,2013-05-02 05:49:00,
2013-05-01 22:52:00,78.4,17.4,29.96,NNW,341,10.0,14.0,10,0.00,,,0.00,0,WeatherHawk,2013-05-02 05:52:00,
2013-05-01 22:54:00,78.4,17.4,29.96,North,352,14.0,-999.0,10,0.00,,,0.00,0,WeatherHawk,2013-05-02 05:54:00,
2013-05-01 22:56:00,78.3,14.8,29.96,North,352,11.0,14.0,9,0.00,,,0.00,0,WeatherHawk,2013-05-02 05:56:00,
2013-05-01 22:59:00,78.4,14.9,29.96,NNW,342,7.0,14.0,9,0.00,,,0.00,0,WeatherHawk,2013-05-02 05:59:00,
2013-05-01 23:02:00,78.6,15.1,29.96,North,354,10.0,14.0,9,0.00,,,0.00,0,WeatherHawk,2013-05-02 06:02:00,
2013-05-01 23:04:00,78.6,15.1,29.96,NNW,346,11.0,14.0,9,0.00,,,0.00,1,WeatherHawk,2013-05-02 06:04:00,
2013-05-01 23:05:00,78.4,19.6,29.96,NNW,329,8.0,14.0,11,0.00,,,0.00,1,WeatherHawk,2013-05-02 06:05:00,
2013-05-01 23:06:00,78.1,19.3,29.96,NW,318,7.0,14.0,11,0.00,,,0.00,0,WeatherHawk,2013-05-02 06:06:00,
2013-05-01 23:08:00,77.0,24.2,29.96,West,280,6.0,14.0,14,0.00,,,0.00,0,WeatherHawk,2013-05-02 06:08:00,
2013-05-01 23:10:00,76.3,23.6,29.96,West,276,5.0,0.0,14,0.00,,,0.00,0,WeatherHawk,2013-05-02 06:10:00,
2013-05-01 23:13:00,74.7,22.3,29.96,WNW,290,4.0,11.0,14,0.00,,,0.00,0,WeatherHawk,2013-05-02 06:13:00,
2013-05-01 23:14:00,74.7,22.3,29.96,WNW,290,4.0,11.0,14,0.00,,,0.00,0,WeatherHawk,2013-05-02 06:14:00,
2013-05-01 23:16:00,74.7,20.6,29.96,WNW,299,6.0,11.0,13,0.00,,,0.00,0,WeatherHawk,2013-05-02 06:16:00,
2013-05-01 23:18:00,75.0,22.6,29.96,WNW,293,5.0,11.0,14,0.00,,,0.00,0,WeatherHawk,2013-05-02 06:18:00,
2013-05-01 23:19:00,75.0,22.6,29.96,WNW,293,5.0,-999.0,14,0.00,,,0.00,0,WeatherHawk,2013-05-02 06:19:00,
2013-05-01 23:24:00,74.3,23.7,29.97,WNW,296,5.0,7.0,15,0.00,,,0.00,0,WeatherHawk,2013-05-02 06:24:00,
2013-05-01 23:25:00,74.1,23.5,29.97,WNW,297,6.0,7.0,15,0.00,,,0.00,0,WeatherHawk,2013-05-02 06:25:00,
2013-05-01 23:29:00,74.3,22.0,29.97,NW,318,8.0,-999.0,14,0.00,,,0.00,1,WeatherHawk,2013-05-02 06:29:00,
2013-05-01 23:30:00,74.1,21.9,29.97,NW,324,7.0,9.0,14,0.00,,,0.00,0,WeatherHawk,2013-05-02 06:30:00,
2013-05-01 23:31:00,74.5,22.2,29.97,NNW,331,8.0,9.0,14,0.00,,,0.00,0,WeatherHawk,2013-05-02 06:31:00,
2013-05-01 23:34:00,74.7,20.6,29.97,NW,319,8.0,9.0,13,0.00,,,0.00,0,WeatherHawk,2013-05-02 06:34:00,
2013-05-01 23:37:00,74.3,23.7,29.97,NNW,328,6.0,9.0,15,0.00,,,0.00,0,WeatherHawk,2013-05-02 06:37:00,
2013-05-01 23:39:00,73.8,23.2,29.97,NW,326,7.0,9.0,15,0.00,,,0.00,0,WeatherHawk,2013-05-02 06:39:00,
2013-05-01 23:42:00,74.3,18.4,29.97,NNW,336,10.0,10.0,12,0.00,,,0.00,0,WeatherHawk,2013-05-02 06:42:00,
2013-05-01 23:44:00,75.2,19.1,29.98,NNW,343,11.0,11.0,12,0.00,,,0.00,0,WeatherHawk,2013-05-02 06:44:00,
2013-05-01 23:45:00,75.9,19.7,29.97,NNW,340,10.0,10.0,12,0.00,,,0.00,0,WeatherHawk,2013-05-02 06:45:00,
2013-05-01 23:47:00,75.9,17.6,29.97,NNW,340,12.0,12.0,11,0.00,,,0.00,0,WeatherHawk,2013-05-02 06:47:00,
2013-05-01 23:48:00,76.3,17.9,29.98,NNW,338,12.0,12.0,11,0.00,,,0.00,0,WeatherHawk,2013-05-02 06:48:00,
2013-05-01 23:49:00,76.3,17.9,29.98,NNW,338,12.0,12.0,11,0.00,,,0.00,0,WeatherHawk,2013-05-02 06:49:00,
2013-05-01 23:53:00,76.8,18.3,29.97,NNW,336,11.0,16.0,11,0.00,,,0.00,0,WeatherHawk,2013-05-02 06:53:00,
2013-05-01 23:54:00,76.8,18.3,29.97,NNW,336,11.0,16.0,11,0.00,,,0.00,0,WeatherHawk,2013-05-02 06:54:00,
2013-05-01 23:55:00,76.6,18.2,29.97,NNW,345,11.0,16.0,11,0.00,,,0.00,0,WeatherHawk,2013-05-02 06:55:00,
2013-05-01 23:58:00,77.0,16.3,29.98,NNW,339,13.0,16.0,10,0.00,,,0.00,0,WeatherHawk,2013-05-02 06:58:00,